Wetterdaten: Freitag, 14.07.2017
Datum Zeit Temp. Aussen Temp. o. S. +5cm Feuchte Auss BlattFeu 1 Luftdruck Regen Sonnenschein Regendauer Solar Windben Empfang
14.07.2017 00:00 15,0 C 12,8 C 11,7 C 77 % 0 lf 1017,6 hPa 0,0 l/m 0 min 0 min 0 W/m 0,0 km/h (0 Bft) 91,49 %
14.07.2017 00:02 14,9 C 12,8 C 11,7 C 78 % 0 lf 1017,7 hPa 0,0 l/m 0 min 0 min 0 W/m 0,0 km/h (0 Bft) 97,50 %
14.07.2017 00:04 14,9 C 12,8 C 11,7 C 78 % 0 lf 1017,7 hPa 0,0 l/m 0 min 0 min 0 W/m 0,0 km/h (0 Bft) 89,36 %
14.07.2017 00:06 14,9 C 12,8 C 11,7 C 78 % 0 lf 1017,6 hPa 0,0 l/m 0 min 0 min 0 W/m 0,0 km/h (0 Bft) 91,49 %
14.07.2017 00:10 14,8 C 12,8 C 11,7 C 78 % 0 lf 1017,6 hPa 0,0 l/m 0 min 0 min 0 W/m 0,0 km/h (0 Bft) 93,75 %
14.07.2017 00:12 14,7 C 12,8 C 11,7 C 78 % 0 lf 1017,6 hPa 0,0 l/m 0 min 0 min 0 W/m 0,0 km/h (0 Bft) 91,49 %
14.07.2017 00:14 14,7 C 12,8 C 11,7 C 78 % 0 lf 1017,6 hPa 0,0 l/m 0 min 0 min 0 W/m 0,0 km/h (0 Bft) 93,62 %
14.07.2017 00:16 14,7 C 12,8 C 11,7 C 78 % 0 lf 1017,5 hPa 0,0 l/m 0 min 0 min 0 W/m 0,0 km/h (0 Bft) 89,36 %
14.07.2017 00:18 14,6 C 12,8 C 11,7 C 78 % 0 lf 1017,5 hPa 0,0 l/m 0 min 0 min 0 W/m 0,0 km/h (0 Bft) 91,49 %
14.07.2017 00:20 14,6 C 12,2 C 11,7 C 79 % 0 lf 1017,5 hPa 0,0 l/m 0 min 0 min 0 W/m 0,0 km/h (0 Bft) 91,30 %
14.07.2017 00:22 14,5 C 12,2 C 11,7 C 79 % 0 lf 1017,5 hPa 0,0 l/m 0 min 0 min 0 W/m 0,0 km/h (0 Bft) 91,49 %
14.07.2017 00:24 14,4 C 12,2 C 11,1 C 79 % 0 lf 1017,4 hPa 0,0 l/m 0 min 0 min 0 W/m 0,0 km/h (0 Bft) 93,62 %
14.07.2017 00:26 14,4 C 12,2 C 11,1 C 79 % 0 lf 1017,4 hPa 0,0 l/m 0 min 0 min 0 W/m 0,0 km/h (0 Bft) 89,36 %
14.07.2017 00:28 14,4 C 12,2 C 11,1 C 79 % 0 lf 1017,4 hPa 0,0 l/m 0 min 0 min 0 W/m 0,0 km/h (0 Bft) 91,49 %
14.07.2017 00:30 14,3 C 12,2 C 11,1 C 79 % 0 lf 1017,5 hPa 0,0 l/m 0 min 0 min 0 W/m 0,0 km/h (0 Bft) 89,36 %
14.07.2017 00:32 14,3 C 12,2 C 11,1 C 79 % 0 lf 1017,5 hPa 0,0 l/m 0 min 0 min 0 W/m 0,0 km/h (0 Bft) 95,65 %
14.07.2017 00:34 14,2 C 12,2 C 11,1 C 79 % 0 lf 1017,4 hPa 0,0 l/m 0 min 0 min 2 W/m 0,0 km/h (0 Bft) 95,74 %
14.07.2017 00:36 14,2 C 12,2 C 11,1 C 80 % 0 lf 1017,4 hPa 0,0 l/m 0 min 0 min 0 W/m 0,0 km/h (0 Bft) 91,49 %
14.07.2017 00:38 14,2 C 12,2 C 11,1 C 80 % 0 lf 1017,5 hPa 0,0 l/m 0 min 0 min 2 W/m 0,0 km/h (0 Bft) 91,49 %
14.07.2017 00:40 14,2 C 12,2 C 11,1 C 80 % 0 lf 1017,5 hPa 0,0 l/m 0 min 0 min 0 W/m 0,0 km/h (0 Bft) 95,74 %
14.07.2017 00:42 14,2 C 11,7 C 11,1 C 80 % 0 lf 1017,5 hPa 0,0 l/m 0 min 0 min 0 W/m 0,0 km/h (0 Bft) 95,74 %
14.07.2017 00:44 14,2 C 11,7 C 11,1 C 80 % 0 lf 1017,5 hPa 0,0 l/m 0 min 0 min 2 W/m 0,0 km/h (0 Bft) 91,30 %
14.07.2017 00:46 14,1 C 11,7 C 11,1 C 80 % 0 lf 1017,5 hPa 0,0 l/m 0 min 0 min 5 W/m 0,0 km/h (0 Bft) 95,74 %
14.07.2017 00:48 14,1 C 11,7 C 11,1 C 81 % 0 lf 1017,6 hPa 0,0 l/m 0 min 0 min 1 W/m 0,0 km/h (0 Bft) 91,49 %
14.07.2017 00:50 14,0 C 11,7 C 11,1 C 81 % 0 lf 1017,5 hPa 0,0 l/m 0 min 0 min 0 W/m 0,0 km/h (0 Bft) 89,36 %
14.07.2017 00:52 13,9 C 11,7 C 11,1 C 81 % 0 lf 1017,5 hPa 0,0 l/m 0 min 0 min 2 W/m 0,0 km/h (0 Bft) 88,89 %
14.07.2017 00:54 13,9 C 11,7 C 11,1 C 81 % 0 lf 1017,6 hPa 0,0 l/m 0 min 0 min 0 W/m 0,0 km/h (0 Bft) 95,74 %
14.07.2017 00:56 13,8 C 11,7 C 10,6 C 81 % 0 lf 1017,6 hPa 0,0 l/m 0 min 0 min 0 W/m 0,0 km/h (0 Bft) 93,62 %
14.07.2017 00:58 13,8 C 11,7 C 10,6 C 81 % 0 lf 1017,5 hPa 0,0 l/m 0 min 0 min 1 W/m 0,0 km/h (0 Bft) 93,48 %
14.07.2017 01:00 13,8 C 11,7 C 10,6 C 82 % 0 lf 1017,4 hPa 0,0 l/m 0 min 0 min 1 W/m 0,0 km/h (0 Bft) 95,74 %
14.07.2017 01:02 13,7 C 11,7 C 10,6 C 82 % 0 lf 1017,3 hPa 0,0 l/m 0 min 0 min 0 W/m 0,0 km/h (0 Bft) 89,36 %
14.07.2017 01:04 13,7 C 11,7 C 10,6 C 82 % 0 lf 1017,4 hPa 0,0 l/m 0 min 0 min 0 W/m 0,0 km/h (0 Bft) 93,62 %
14.07.2017 01:06 13,6 C 11,7 C 10,6 C 82 % 0 lf 1017,3 hPa 0,0 l/m 0 min 0 min 0 W/m 0,0 km/h (0 Bft) 95,74 %
14.07.2017 01:08 13,6 C 11,1 C 10,6 C 82 % 0 lf 1017,3 hPa 0,0 l/m 0 min 0 min 0 W/m 0,0 km/h (0 Bft) 91,49 %
14.07.2017 01:10 13,6 C 11,1 C 10,6 C 82 % 0 lf 1017,4 hPa 0,0 l/m 0 min 0 min 5 W/m 0,0 km/h (0 Bft) 97,83 %
14.07.2017 01:12 13,5 C 11,1 C 10,6 C 82 % 0 lf 1017,3 hPa 0,0 l/m 0 min 0 min 1 W/m 0,0 km/h (0 Bft) 91,49 %
14.07.2017 01:14 13,4 C 11,1 C 10,6 C 82 % 0 lf 1017,5 hPa 0,0 l/m 0 min 0 min 0 W/m 0,0 km/h (0 Bft) 95,74 %
14.07.2017 01:16 13,4 C 11,1 C 10,6 C 83 % 0 lf 1017,4 hPa 0,0 l/m 0 min 0 min 0 W/m 0,0 km/h (0 Bft) 95,74 %
14.07.2017 01:18 13,4 C 11,7 C 10,6 C 83 % 0 lf 1017,4 hPa 0,0 l/m 0 min 0 min 2 W/m 0,0 km/h (0 Bft) 91,49 %
14.07.2017 01:20 13,3 C 11,7 C 10,6 C 83 % 0 lf 1017,4 hPa 0,0 l/m 0 min 0 min 5 W/m 0,0 km/h (0 Bft) 91,38 %
14.07.2017 01:22 13,3 C 11,7 C 10,6 C 83 % 0 lf 1017,2 hPa 0,0 l/m 0 min 0 min 5 W/m 0,0 km/h (0 Bft) 100,00 %
14.07.2017 01:24 13,3 C 11,7 C 10,6 C 83 % 0 lf 1017,2 hPa 0,0 l/m 0 min 0 min 5 W/m 0,0 km/h (0 Bft) 93,62 %
14.07.2017 01:26 13,2 C 11,7 C 10,6 C 83 % 0 lf 1017,2 hPa 0,0 l/m 0 min 0 min 5 W/m 0,0 km/h (0 Bft) 93,62 %
14.07.2017 01:28 13,2 C 11,7 C 10,6 C 83 % 0 lf 1017,1 hPa 0,0 l/m 0 min 0 min 4 W/m 0,0 km/h (0 Bft) 97,87 %
14.07.2017 01:30 13,2 C 11,1 C 10,6 C 83 % 0 lf 1017,2 hPa 0,0 l/m 0 min 0 min 0 W/m 0,0 km/h (0 Bft) 97,87 %
14.07.2017 01:32 13,2 C 11,1 C 10,6 C 83 % 0 lf 1017,1 hPa 0,0 l/m 0 min 0 min 0 W/m 0,0 km/h (0 Bft) 100,00 %
14.07.2017 01:34 13,1 C 11,7 C 10,6 C 83 % 0 lf 1017,1 hPa 0,0 l/m 0 min 0 min 0 W/m 0,0 km/h (0 Bft) 97,87 %
14.07.2017 01:36 13,1 C 11,7 C 10,6 C 83 % 0 lf 1017,0 hPa 0,0 l/m 0 min 0 min 0 W/m 0,0 km/h (0 Bft) 95,74 %
14.07.2017 01:38 13,1 C 11,7 C 10,6 C 84 % 0 lf 1017,0 hPa 0,0 l/m 0 min 0 min 0 W/m 0,0 km/h (0 Bft) 100,00 %
14.07.2017 01:40 13,1 C 12,2 C 10,6 C 84 % 0 lf 1017,0 hPa 0,0 l/m 0 min 0 min 0 W/m 0,0 km/h (0 Bft) 100,00 %
14.07.2017 01:42 13,0 C 12,2 C 10,6 C 85 % 0 lf 1017,0 hPa 0,0 l/m 0 min 0 min 0 W/m 0,0 km/h (0 Bft) 93,62 %
14.07.2017 01:44 13,0 C 11,7 C 10,6 C 85 % 0 lf 1017,0 hPa 0,0 l/m 0 min 0 min 0 W/m 0,0 km/h (0 Bft) 100,00 %
14.07.2017 01:46 12,9 C 11,7 C 10,6 C 85 % 0 lf 1017,0 hPa 0,0 l/m 0 min 0 min 0 W/m 0,0 km/h (0 Bft) 97,87 %
14.07.2017 01:48 12,9 C 11,7 C 10,6 C 85 % 0 lf 1017,1 hPa 0,0 l/m 0 min 0 min 0 W/m 0,0 km/h (0 Bft) 100,00 %
14.07.2017 01:50 12,9 C 11,7 C 10,6 C 85 % 0 lf 1017,0 hPa 0,0 l/m 0 min 0 min 0 W/m 0,0 km/h (0 Bft) 100,00 %
14.07.2017 01:52 12,8 C 11,7 C 10,6 C 85 % 0 lf 1017,0 hPa 0,0 l/m 0 min 0 min 0 W/m 0,0 km/h (0 Bft) 97,14 %
14.07.2017 01:54 12,8 C 11,1 C 10,6 C 85 % 0 lf 1016,9 hPa 0,0 l/m 0 min 0 min 0 W/m 0,0 km/h (0 Bft) 100,00 %
14.07.2017 01:56 12,8 C 11,1 C 10,6 C 85 % 0 lf 1017,0 hPa 0,0 l/m 0 min 0 min 0 W/m 0,0 km/h (0 Bft) 95,65 %
14.07.2017 01:58 12,8 C 11,1 C 10,6 C 85 % 0 lf 1017,0 hPa 0,0 l/m 0 min 0 min 0 W/m 0,0 km/h (0 Bft) 100,00 %
14.07.2017 02:00 12,7 C 11,1 C 10,0 C 85 % 0 lf 1016,9 hPa 0,0 l/m 0 min 0 min 0 W/m 0,0 km/h (0 Bft) 100,00 %
14.07.2017 02:02 12,7 C 11,1 C 10,0 C 86 % 0 lf 1016,9 hPa 0,0 l/m 0 min 0 min 0 W/m 0,0 km/h (0 Bft) 97,87 %
14.07.2017 02:04 12,7 C 11,1 C 10,0 C 86 % 0 lf 1016,9 hPa 0,0 l/m 0 min 0 min 0 W/m 0,0 km/h (0 Bft) 100,00 %
14.07.2017 02:06 12,7 C 11,1 C 10,0 C 86 % 0 lf 1016,9 hPa 0,0 l/m 0 min 0 min 0 W/m 0,0 km/h (0 Bft) 97,87 %
14.07.2017 02:08 12,7 C 11,1 C 10,0 C 86 % 0 lf 1016,8 hPa 0,0 l/m 0 min 0 min 0 W/m 0,0 km/h (0 Bft) 97,83 %
14.07.2017 02:10 12,6 C 11,1 C 10,0 C 86 % 0 lf 1016,8 hPa 0,0 l/m 0 min 0 min 0 W/m 0,0 km/h (0 Bft) 100,00 %
14.07.2017 02:12 12,6 C 11,1 C 10,0 C 85 % 0 lf 1016,7 hPa 0,0 l/m 0 min 0 min 0 W/m 0,0 km/h (0 Bft) 100,00 %
14.07.2017 02:14 12,6 C 11,7 C 10,0 C 86 % 0 lf 1016,7 hPa 0,0 l/m 0 min 0 min 0 W/m 0,0 km/h (0 Bft) 100,00 %
14.07.2017 02:16 12,5 C 11,7 C 10,0 C 86 % 0 lf 1016,6 hPa 0,0 l/m 0 min 0 min 0 W/m 0,0 km/h (0 Bft) 97,87 %
14.07.2017 02:18 12,5 C 11,7 C 10,0 C 86 % 0 lf 1016,7 hPa 0,0 l/m 0 min 0 min 0 W/m 0,0 km/h (0 Bft) 100,00 %
14.07.2017 02:20 12,4 C 11,1 C 10,0 C 86 % 0 lf 1016,7 hPa 0,0 l/m 0 min 0 min 0 W/m 0,0 km/h (0 Bft) 100,00 %
14.07.2017 02:22 12,4 C 11,1 C 10,0 C 86 % 0 lf 1016,7 hPa 0,0 l/m 0 min 0 min 0 W/m 0,0 km/h (0 Bft) 97,14 %
14.07.2017 02:24 12,4 C 11,1 C 10,0 C 86 % 0 lf 1016,7 hPa 0,0 l/m 0 min 0 min 0 W/m 0,0 km/h (0 Bft) 100,00 %
14.07.2017 02:26 12,4 C 10,6 C 10,0 C 86 % 0 lf 1016,7 hPa 0,0 l/m 0 min 0 min 0 W/m 0,0 km/h (0 Bft) 98,31 %
14.07.2017 02:28 12,4 C 10,6 C 10,0 C 86 % 0 lf 1016,7 hPa 0,0 l/m 0 min 0 min 0 W/m 0,0 km/h (0 Bft) 94,29 %
14.07.2017 02:30 12,3 C 10,6 C 10,0 C 86 % 0 lf 1016,7 hPa 0,0 l/m 0 min 0 min 0 W/m 0,0 km/h (0 Bft) 97,87 %
14.07.2017 02:32 12,3 C 10,6 C 10,0 C 86 % 0 lf 1016,6 hPa 0,0 l/m 0 min 0 min 0 W/m 0,0 km/h (0 Bft) 100,00 %
14.07.2017 02:34 12,3 C 10,6 C 10,0 C 86 % 0 lf 1016,6 hPa 0,0 l/m 0 min 0 min 0 W/m 0,0 km/h (0 Bft) 97,87 %
14.07.2017 02:36 12,2 C 10,6 C 10,0 C 86 % 0 lf 1016,6 hPa 0,0 l/m 0 min 0 min 0 W/m 0,0 km/h (0 Bft) 97,87 %
14.07.2017 02:38 12,2 C 10,6 C 10,0 C 86 % 0 lf 1016,5 hPa 0,0 l/m 0 min 0 min 0 W/m 0,0 km/h (0 Bft) 93,62 %
14.07.2017 02:40 12,2 C 10,6 C 10,0 C 86 % 0 lf 1016,5 hPa 0,0 l/m 0 min 0 min 0 W/m 0,0 km/h (0 Bft) 100,00 %
14.07.2017 02:42 12,2 C 10,6 C 10,0 C 86 % 0 lf 1016,5 hPa 0,0 l/m 0 min 0 min 0 W/m 0,0 km/h (0 Bft) 97,83 %
14.07.2017 02:44 12,1 C 11,1 C 10,0 C 86 % 0 lf 1016,5 hPa 0,0 l/m 0 min 0 min 0 W/m 0,0 km/h (0 Bft) 97,87 %
14.07.2017 02:46 12,1 C 11,1 C 10,0 C 87 % 0 lf 1016,5 hPa 0,0 l/m 0 min 0 min 0 W/m 0,0 km/h (0 Bft) 93,62 %
14.07.2017 02:48 12,1 C 10,6 C 10,0 C 87 % 0 lf 1016,5 hPa 0,0 l/m 0 min 0 min 0 W/m 0,0 km/h (0 Bft) 91,49 %
14.07.2017 02:50 12,1 C 10,6 C 10,0 C 87 % 0 lf 1016,5 hPa 0,0 l/m 0 min 0 min 0 W/m 0,0 km/h (0 Bft) 89,83 %
14.07.2017 02:52 12,1 C 10,6 C 10,0 C 87 % 0 lf 1016,5 hPa 0,0 l/m 0 min 0 min 0 W/m 0,0 km/h (0 Bft) 91,43 %
14.07.2017 02:54 12,1 C 10,6 C 10,0 C 87 % 0 lf 1016,4 hPa 0,0 l/m 0 min 0 min 0 W/m 0,0 km/h (0 Bft) 93,62 %
14.07.2017 02:56 12,0 C 10,6 C 10,0 C 87 % 0 lf 1016,4 hPa 0,0 l/m 0 min 0 min 0 W/m 0,0 km/h (0 Bft) 89,13 %
14.07.2017 02:58 12,0 C 10,6 C 10,0 C 87 % 0 lf 1016,4 hPa 0,0 l/m 0 min 0 min 0 W/m 0,0 km/h (0 Bft) 93,62 %
14.07.2017 03:00 11,9 C 10,6 C 10,0 C 87 % 0 lf 1016,4 hPa 0,0 l/m 0 min 0 min 0 W/m 0,0 km/h (0 Bft) 91,49 %
14.07.2017 03:02 11,9 C 10,6 C 10,0 C 87 % 0 lf 1016,4 hPa 0,0 l/m 0 min 0 min 0 W/m 0,0 km/h (0 Bft) 93,62 %
14.07.2017 03:04 11,9 C 10,6 C 10,0 C 87 % 0 lf 1016,4 hPa 0,0 l/m 0 min 0 min 0 W/m 0,0 km/h (0 Bft) 93,62 %
14.07.2017 03:06 11,9 C 10,6 C 10,0 C 87 % 0 lf 1016,4 hPa 0,0 l/m 0 min 0 min 0 W/m 0,0 km/h (0 Bft) 91,30 %
14.07.2017 03:08 11,9 C 10,6 C 10,0 C 87 % 0 lf 1016,3 hPa 0,0 l/m 0 min 0 min 0 W/m 0,0 km/h (0 Bft) 82,98 %
14.07.2017 03:10 11,9 C 10,6 C 9,4 C 88 % 0 lf 1016,3 hPa 0,0 l/m 0 min 0 min 2 W/m 0,0 km/h (0 Bft) 91,49 %
14.07.2017 03:12 11,8 C 10,6 C 9,4 C 88 % 0 lf 1016,3 hPa 0,0 l/m 0 min 0 min 0 W/m 0,0 km/h (0 Bft) 93,62 %
14.07.2017 03:14 11,8 C 10,6 C 9,4 C 88 % 0 lf 1016,3 hPa 0,0 l/m 0 min 0 min 0 W/m 0,0 km/h (0 Bft) 93,62 %
14.07.2017 03:16 11,8 C 10,6 C 9,4 C 88 % 0 lf 1016,3 hPa 0,0 l/m 0 min 0 min 0 W/m 0,0 km/h (0 Bft) 93,62 %
14.07.2017 03:18 11,8 C 10,6 C 9,4 C 88 % 0 lf 1016,2 hPa 0,0 l/m 0 min 0 min 1 W/m 0,0 km/h (0 Bft) 91,30 %
14.07.2017 03:20 11,7 C 10,0 C 9,4 C 88 % 0 lf 1016,2 hPa 0,0 l/m 0 min 0 min 5 W/m 0,0 km/h (0 Bft) 93,22 %
14.07.2017 03:22 11,7 C 10,6 C 9,4 C 88 % 0 lf 1016,2 hPa 0,0 l/m 0 min 0 min 5 W/m 0,0 km/h (0 Bft) 94,29 %
14.07.2017 03:24 11,7 C 10,0 C 9,4 C 88 % 0 lf 1016,2 hPa 0,0 l/m 0 min 0 min 1 W/m 0,0 km/h (0 Bft) 95,74 %
14.07.2017 03:26 11,7 C 10,0 C 9,4 C 88 % 0 lf 1016,3 hPa 0,0 l/m 0 min 0 min 0 W/m 0,0 km/h (0 Bft) 89,36 %
14.07.2017 03:28 11,7 C 10,0 C 9,4 C 88 % 1 lf 1016,3 hPa 0,0 l/m 0 min 0 min 4 W/m 0,0 km/h (0 Bft) 97,87 %
14.07.2017 03:30 11,6 C 10,0 C 9,4 C 88 % 0 lf 1016,2 hPa 0,0 l/m 0 min 0 min 1 W/m 0,0 km/h (0 Bft) 95,65 %
14.07.2017 03:32 11,6 C 10,0 C 9,4 C 88 % 1 lf 1016,2 hPa 0,0 l/m 0 min 0 min 5 W/m 0,0 km/h (0 Bft) 97,87 %
14.07.2017 03:34 11,6 C 10,0 C 9,4 C 88 % 1 lf 1016,2 hPa 0,0 l/m 0 min 0 min 3 W/m 0,0 km/h (0 Bft) 93,62 %
14.07.2017 03:36 11,6 C 10,0 C 9,4 C 88 % 0 lf 1016,1 hPa 0,0 l/m 0 min 0 min 0 W/m 0,0 km/h (0 Bft) 93,62 %
14.07.2017 03:38 11,6 C 10,0 C 9,4 C 88 % 0 lf 1016,1 hPa 0,0 l/m 0 min 0 min 0 W/m 0,0 km/h (0 Bft) 97,87 %
14.07.2017 03:40 11,5 C 10,0 C 9,4 C 88 % 0 lf 1016,1 hPa 0,0 l/m 0 min 0 min 0 W/m 0,0 km/h (0 Bft) 95,74 %
14.07.2017 03:42 11,5 C 10,0 C 9,4 C 88 % 0 lf 1016,1 hPa 0,0 l/m 0 min 0 min 1 W/m 0,0 km/h (0 Bft) 93,48 %
14.07.2017 03:44 11,5 C 10,6 C 9,4 C 88 % 0 lf 1016,0 hPa 0,0 l/m 0 min 0 min 0 W/m 0,0 km/h (0 Bft) 100,00 %
14.07.2017 03:46 11,5 C 10,6 C 9,4 C 88 % 0 lf 1016,1 hPa 0,0 l/m 0 min 0 min 3 W/m 0,0 km/h (0 Bft) 95,74 %
14.07.2017 03:48 11,4 C 10,6 C 10,0 C 88 % 0 lf 1016,1 hPa 0,0 l/m 0 min 0 min 3 W/m 0,0 km/h (0 Bft) 97,87 %
14.07.2017 03:50 11,4 C 10,6 C 10,0 C 89 % 0 lf 1016,0 hPa 0,0 l/m 0 min 0 min 0 W/m 0,0 km/h (0 Bft) 91,38 %
14.07.2017 03:52 11,4 C 11,1 C 10,0 C 89 % 0 lf 1016,0 hPa 0,0 l/m 0 min 0 min 0 W/m 0,0 km/h (0 Bft) 100,00 %
14.07.2017 03:54 11,4 C 10,6 C 10,0 C 89 % 0 lf 1015,9 hPa 0,0 l/m 0 min 0 min 0 W/m 0,0 km/h (0 Bft) 100,00 %
14.07.2017 03:56 11,4 C 10,6 C 10,0 C 89 % 0 lf 1015,9 hPa 0,0 l/m 0 min 0 min 0 W/m 0,0 km/h (0 Bft) 97,87 %
14.07.2017 03:58 11,4 C 10,6 C 10,0 C 89 % 0 lf 1015,9 hPa 0,0 l/m 0 min 0 min 1 W/m 0,0 km/h (0 Bft) 100,00 %
14.07.2017 04:00 11,4 C 10,6 C 10,0 C 89 % 0 lf 1015,8 hPa 0,0 l/m 0 min 0 min 5 W/m 0,0 km/h (0 Bft) 100,00 %
14.07.2017 04:02 11,4 C 10,6 C 10,0 C 89 % 0 lf 1015,9 hPa 0,0 l/m 0 min 0 min 0 W/m 0,0 km/h (0 Bft) 100,00 %
14.07.2017 04:04 11,4 C 10,6 C 10,0 C 89 % 0 lf 1015,9 hPa 0,0 l/m 0 min 0 min 0 W/m 0,0 km/h (0 Bft) 97,87 %
14.07.2017 04:06 11,4 C 10,6 C 10,0 C 89 % 0 lf 1015,9 hPa 0,0 l/m 0 min 0 min 0 W/m 0,0 km/h (0 Bft) 95,65 %
14.07.2017 04:08 11,3 C 10,6 C 10,0 C 90 % 0 lf 1015,9 hPa 0,0 l/m 0 min 0 min 0 W/m 0,0 km/h (0 Bft) 100,00 %
14.07.2017 04:10 11,3 C 10,6 C 10,0 C 90 % 0 lf 1015,9 hPa 0,0 l/m 0 min 0 min 5 W/m 0,0 km/h (0 Bft) 97,87 %
14.07.2017 04:12 11,3 C 10,6 C 10,0 C 90 % 0 lf 1015,9 hPa 0,0 l/m 0 min 0 min 5 W/m 0,0 km/h (0 Bft) 97,87 %
14.07.2017 04:14 11,3 C 10,6 C 10,0 C 90 % 0 lf 1015,9 hPa 0,0 l/m 0 min 0 min 5 W/m 0,0 km/h (0 Bft) 97,87 %
14.07.2017 04:16 11,3 C 10,6 C 10,0 C 90 % 0 lf 1015,9 hPa 0,0 l/m 0 min 0 min 0 W/m 0,0 km/h (0 Bft) 97,83 %
14.07.2017 04:18 11,3 C 10,6 C 10,0 C 90 % 0 lf 1015,8 hPa 0,0 l/m 0 min 0 min 1 W/m 0,0 km/h (0 Bft) 100,00 %
14.07.2017 04:20 11,3 C 10,6 C 10,0 C 90 % 0 lf 1015,8 hPa 0,0 l/m 0 min 0 min 0 W/m 0,0 km/h (0 Bft) 100,00 %
14.07.2017 04:22 11,3 C 10,6 C 10,0 C 90 % 0 lf 1015,9 hPa 0,0 l/m 0 min 0 min 0 W/m 0,0 km/h (0 Bft) 100,00 %
14.07.2017 04:24 11,4 C 10,6 C 10,0 C 90 % 0 lf 1015,8 hPa 0,0 l/m 0 min 0 min 4 W/m 0,0 km/h (0 Bft) 97,87 %
14.07.2017 04:26 11,3 C 10,6 C 10,0 C 90 % 0 lf 1015,8 hPa 0,0 l/m 0 min 0 min 5 W/m 0,0 km/h (0 Bft) 100,00 %
14.07.2017 04:28 11,3 C 11,1 C 10,0 C 91 % 0 lf 1015,8 hPa 0,0 l/m 0 min 0 min 2 W/m 0,0 km/h (0 Bft) 95,65 %
14.07.2017 04:30 11,3 C 11,1 C 10,0 C 91 % 0 lf 1015,9 hPa 0,0 l/m 0 min 0 min 0 W/m 0,0 km/h (0 Bft) 93,62 %
14.07.2017 04:32 11,3 C 11,1 C 10,6 C 91 % 0 lf 1015,9 hPa 0,0 l/m 0 min 0 min 2 W/m 0,0 km/h (0 Bft) 97,87 %
14.07.2017 04:34 11,3 C 11,1 C 10,6 C 91 % 0 lf 1015,9 hPa 0,0 l/m 0 min 0 min 0 W/m 0,0 km/h (0 Bft) 95,74 %
14.07.2017 04:36 11,3 C 11,1 C 10,6 C 91 % 0 lf 1015,9 hPa 0,0 l/m 0 min 0 min 0 W/m 0,0 km/h (0 Bft) 95,74 %
14.07.2017 04:38 11,4 C 11,1 C 10,6 C 91 % 0 lf 1015,9 hPa 0,0 l/m 0 min 0 min 2 W/m 0,0 km/h (0 Bft) 91,49 %
14.07.2017 04:40 11,4 C 11,1 C 10,6 C 91 % 0 lf 1015,9 hPa 0,0 l/m 0 min 0 min 0 W/m 0,0 km/h (0 Bft) 95,65 %
14.07.2017 04:42 11,4 C 11,1 C 10,6 C 91 % 0 lf 1015,8 hPa 0,0 l/m 0 min 0 min 0 W/m 0,0 km/h (0 Bft) 95,74 %
14.07.2017 04:44 11,4 C 11,1 C 10,6 C 91 % 0 lf 1015,9 hPa 0,0 l/m 0 min 0 min 0 W/m 0,0 km/h (0 Bft) 89,36 %
14.07.2017 04:46 11,4 C 11,1 C 10,6 C 91 % 0 lf 1015,9 hPa 0,0 l/m 0 min 0 min 0 W/m 0,0 km/h (0 Bft) 91,49 %
14.07.2017 04:48 11,4 C 11,1 C 10,6 C 91 % 0 lf 1015,8 hPa 0,0 l/m 0 min 0 min 0 W/m 0,0 km/h (0 Bft) 93,62 %
14.07.2017 04:50 11,4 C 11,1 C 10,0 C 91 % 0 lf 1015,8 hPa 0,0 l/m 0 min 0 min 0 W/m 0,0 km/h (0 Bft) 94,83 %
14.07.2017 04:52 11,4 C 11,1 C 10,0 C 91 % 0 lf 1015,8 hPa 0,0 l/m 0 min 0 min 0 W/m 0,0 km/h (0 Bft) 94,29 %
14.07.2017 04:54 11,4 C 11,1 C 10,0 C 91 % 0 lf 1015,8 hPa 0,0 l/m 0 min 0 min 0 W/m 0,0 km/h (0 Bft) 95,74 %
14.07.2017 04:56 11,4 C 10,6 C 10,0 C 91 % 0 lf 1015,8 hPa 0,0 l/m 0 min 0 min 0 W/m 0,0 km/h (0 Bft) 91,49 %
14.07.2017 04:58 11,4 C 11,1 C 10,0 C 92 % 0 lf 1015,8 hPa 0,0 l/m 0 min 0 min 0 W/m 0,0 km/h (0 Bft) 89,36 %
14.07.2017 05:00 11,4 C 11,1 C 10,0 C 92 % 0 lf 1015,8 hPa 0,0 l/m 0 min 0 min 0 W/m 0,0 km/h (0 Bft) 95,74 %
14.07.2017 05:02 11,4 C 11,1 C 10,0 C 92 % 0 lf 1015,8 hPa 0,0 l/m 0 min 0 min 2 W/m 0,0 km/h (0 Bft) 93,62 %
14.07.2017 05:04 11,4 C 11,1 C 10,0 C 92 % 0 lf 1015,8 hPa 0,0 l/m 0 min 0 min 0 W/m 0,0 km/h (0 Bft) 93,48 %
14.07.2017 05:06 11,4 C 11,1 C 10,0 C 92 % 0 lf 1015,8 hPa 0,0 l/m 0 min 0 min 0 W/m 0,0 km/h (0 Bft) 93,62 %
14.07.2017 05:08 11,4 C 11,1 C 10,6 C 92 % 0 lf 1015,8 hPa 0,0 l/m 0 min 0 min 0 W/m 0,0 km/h (0 Bft) 93,62 %
14.07.2017 05:10 11,4 C 11,1 C 10,6 C 92 % 0 lf 1015,8 hPa 0,0 l/m 0 min 0 min 0 W/m 0,0 km/h (0 Bft) 97,87 %
14.07.2017 05:12 11,4 C 11,1 C 10,6 C 92 % 0 lf 1015,8 hPa 0,0 l/m 0 min 0 min 0 W/m 0,0 km/h (0 Bft) 95,74 %
14.07.2017 05:14 11,4 C 11,1 C 10,6 C 92 % 0 lf 1015,7 hPa 0,0 l/m 0 min 0 min 0 W/m 0,0 km/h (0 Bft) 93,62 %
14.07.2017 05:16 11,4 C 11,1 C 10,6 C 92 % 0 lf 1015,7 hPa 0,0 l/m 0 min 0 min 0 W/m 0,0 km/h (0 Bft) 97,83 %
14.07.2017 05:18 11,4 C 11,1 C 10,6 C 92 % 0 lf 1015,7 hPa 0,0 l/m 0 min 0 min 0 W/m 0,0 km/h (0 Bft) 97,87 %
14.07.2017 05:20 11,4 C 11,1 C 10,6 C 92 % 0 lf 1015,7 hPa 0,0 l/m 0 min 0 min 0 W/m 0,0 km/h (0 Bft) 96,61 %
14.07.2017 05:22 11,4 C 11,1 C 10,6 C 92 % 0 lf 1015,7 hPa 0,0 l/m 0 min 0 min 0 W/m 0,0 km/h (0 Bft) 97,14 %
14.07.2017 05:24 11,4 C 11,1 C 10,6 C 92 % 0 lf 1015,7 hPa 0,0 l/m 0 min 0 min 0 W/m 0,0 km/h (0 Bft) 91,49 %
14.07.2017 05:26 11,4 C 11,1 C 10,6 C 92 % 0 lf 1015,7 hPa 0,0 l/m 0 min 0 min 0 W/m 0,0 km/h (0 Bft) 93,48 %
14.07.2017 05:28 11,4 C 11,1 C 10,6 C 92 % 0 lf 1015,7 hPa 0,0 l/m 0 min 0 min 1 W/m 0,0 km/h (0 Bft) 95,74 %
14.07.2017 05:30 11,4 C 11,1 C 10,6 C 92 % 0 lf 1015,7 hPa 0,0 l/m 0 min 0 min 5 W/m 0,0 km/h (0 Bft) 93,62 %
14.07.2017 05:32 11,4 C 11,7 C 10,6 C 92 % 0 lf 1015,7 hPa 0,0 l/m 0 min 0 min 5 W/m 0,0 km/h (0 Bft) 93,62 %
14.07.2017 05:34 11,4 C 11,1 C 10,6 C 92 % 0 lf 1015,7 hPa 0,0 l/m 0 min 0 min 5 W/m 0,0 km/h (0 Bft) 91,49 %
14.07.2017 05:36 11,4 C 11,7 C 10,6 C 92 % 0 lf 1015,7 hPa 0,0 l/m 0 min 0 min 5 W/m 0,0 km/h (0 Bft) 95,74 %
14.07.2017 05:38 11,4 C 11,7 C 10,6 C 92 % 0 lf 1015,8 hPa 0,0 l/m 0 min 0 min 5 W/m 0,0 km/h (0 Bft) 93,48 %
14.07.2017 05:40 11,4 C 11,7 C 10,6 C 92 % 0 lf 1015,8 hPa 0,0 l/m 0 min 0 min 6 W/m 0,0 km/h (0 Bft) 97,87 %
14.07.2017 05:42 11,4 C 11,7 C 10,6 C 92 % 0 lf 1015,7 hPa 0,0 l/m 0 min 0 min 7 W/m 0,0 km/h (0 Bft) 95,74 %
14.07.2017 05:44 11,4 C 11,7 C 10,6 C 92 % 0 lf 1015,8 hPa 0,0 l/m 0 min 0 min 7 W/m 0,0 km/h (0 Bft) 97,87 %
14.07.2017 05:46 11,4 C 11,7 C 10,6 C 92 % 0 lf 1015,8 hPa 0,0 l/m 0 min 0 min 8 W/m 0,0 km/h (0 Bft) 95,74 %
14.07.2017 05:48 11,5 C 11,7 C 11,1 C 92 % 0 lf 1015,8 hPa 0,0 l/m 0 min 0 min 9 W/m 0,0 km/h (0 Bft) 97,87 %
14.07.2017 05:50 11,5 C 11,7 C 11,1 C 92 % 0 lf 1015,8 hPa 0,0 l/m 0 min 0 min 9 W/m 0,0 km/h (0 Bft) 96,55 %
14.07.2017 05:52 11,5 C 11,7 C 11,1 C 92 % 0 lf 1015,8 hPa 0,0 l/m 0 min 0 min 11 W/m 0,0 km/h (0 Bft) 97,14 %
14.07.2017 05:54 11,5 C 11,7 C 11,1 C 93 % 0 lf 1015,8 hPa 0,0 l/m 0 min 0 min 11 W/m 0,0 km/h (0 Bft) 85,11 %
14.07.2017 05:56 11,5 C 11,7 C 11,1 C 93 % 0 lf 1015,8 hPa 0,0 l/m 0 min 0 min 12 W/m 0,0 km/h (0 Bft) 91,49 %
14.07.2017 05:58 11,5 C 11,7 C 11,1 C 93 % 0 lf 1015,7 hPa 0,0 l/m 0 min 0 min 14 W/m 0,0 km/h (0 Bft) 95,74 %
14.07.2017 06:00 11,6 C 11,7 C 11,1 C 93 % 0 lf 1015,7 hPa 0,0 l/m 0 min 0 min 16 W/m 0,0 km/h (0 Bft) 93,62 %
14.07.2017 06:02 11,6 C 12,2 C 11,1 C 93 % 0 lf 1015,8 hPa 0,0 l/m 0 min 0 min 18 W/m 0,0 km/h (0 Bft) 91,30 %
14.07.2017 06:04 11,6 C 12,2 C 11,1 C 93 % 0 lf 1015,7 hPa 0,0 l/m 0 min 0 min 19 W/m 0,0 km/h (0 Bft) 95,74 %
14.07.2017 06:06 11,6 C 12,2 C 11,1 C 93 % 0 lf 1015,8 hPa 0,0 l/m 0 min 0 min 22 W/m 0,0 km/h (0 Bft) 89,36 %
14.07.2017 06:08 11,6 C 12,2 C 11,7 C 93 % 0 lf 1015,7 hPa 0,0 l/m 0 min 0 min 23 W/m 0,0 km/h (0 Bft) 97,87 %
14.07.2017 06:12 11,6 C 12,2 C 11,7 C 93 % 0 lf 1015,8 hPa 0,0 l/m 0 min 0 min 25 W/m 0,0 km/h (0 Bft) 95,05 %
14.07.2017 06:14 11,7 C 12,2 C 11,7 C 93 % 0 lf 1015,8 hPa 0,0 l/m 0 min 0 min 26 W/m 0,0 km/h (0 Bft) 97,87 %
14.07.2017 06:16 11,7 C 12,2 C 11,7 C 93 % 0 lf 1015,8 hPa 0,0 l/m 0 min 0 min 27 W/m 0,0 km/h (0 Bft) 97,87 %
14.07.2017 06:18 11,7 C 12,2 C 11,7 C 93 % 0 lf 1015,8 hPa 0,0 l/m 0 min 0 min 28 W/m 0,0 km/h (0 Bft) 95,74 %
14.07.2017 06:20 11,7 C 12,8 C 11,7 C 93 % 0 lf 1015,8 hPa 0,0 l/m 0 min 0 min 28 W/m 0,0 km/h (0 Bft) 97,87 %
14.07.2017 06:22 11,7 C 12,8 C 11,7 C 93 % 0 lf 1015,8 hPa 0,0 l/m 0 min 0 min 28 W/m 0,0 km/h (0 Bft) 93,62 %
14.07.2017 06:24 11,7 C 12,8 C 11,7 C 93 % 0 lf 1015,8 hPa 0,0 l/m 0 min 0 min 28 W/m 0,0 km/h (0 Bft) 97,83 %
14.07.2017 06:26 11,7 C 12,8 C 11,7 C 93 % 0 lf 1015,8 hPa 0,0 l/m 0 min 0 min 27 W/m 0,0 km/h (0 Bft) 93,62 %
14.07.2017 06:28 11,8 C 12,8 C 12,2 C 93 % 0 lf 1015,8 hPa 0,0 l/m 0 min 0 min 26 W/m 0,0 km/h (0 Bft) 95,74 %
14.07.2017 06:30 11,8 C 12,8 C 12,2 C 93 % 0 lf 1015,8 hPa 0,0 l/m 0 min 0 min 26 W/m 0,0 km/h (0 Bft) 95,74 %
14.07.2017 06:32 11,8 C 12,8 C 12,2 C 93 % 0 lf 1015,8 hPa 0,0 l/m 0 min 0 min 28 W/m 0,0 km/h (0 Bft) 93,62 %
14.07.2017 06:34 11,8 C 12,8 C 11,7 C 93 % 0 lf 1015,7 hPa 0,0 l/m 0 min 0 min 28 W/m 0,0 km/h (0 Bft) 93,62 %
14.07.2017 06:36 11,9 C 12,8 C 12,2 C 93 % 0 lf 1015,8 hPa 0,0 l/m 0 min 0 min 26 W/m 0,0 km/h (0 Bft) 93,48 %
14.07.2017 06:38 11,9 C 12,8 C 12,2 C 93 % 0 lf 1015,8 hPa 0,0 l/m 0 min 0 min 27 W/m 0,0 km/h (0 Bft) 95,74 %
14.07.2017 06:40 11,9 C 12,8 C 12,2 C 93 % 0 lf 1015,7 hPa 0,0 l/m 0 min 0 min 28 W/m 0,0 km/h (0 Bft) 95,74 %
14.07.2017 06:42 11,9 C 12,8 C 12,2 C 93 % 0 lf 1015,8 hPa 0,0 l/m 0 min 0 min 28 W/m 0,0 km/h (0 Bft) 97,87 %
14.07.2017 06:44 11,9 C 12,8 C 12,2 C 93 % 0 lf 1015,9 hPa 0,0 l/m 0 min 0 min 28 W/m 0,0 km/h (0 Bft) 95,74 %
14.07.2017 06:46 12,0 C 12,8 C 12,2 C 93 % 0 lf 1015,8 hPa 0,0 l/m 0 min 0 min 26 W/m 0,0 km/h (0 Bft) 93,48 %
14.07.2017 06:48 12,0 C 12,8 C 12,2 C 93 % 0 lf 1015,8 hPa 0,0 l/m 0 min 0 min 24 W/m 0,0 km/h (0 Bft) 97,87 %
14.07.2017 06:50 12,0 C 12,8 C 12,2 C 93 % 0 lf 1015,8 hPa 0,0 l/m 0 min 0 min 21 W/m 0,0 km/h (0 Bft) 93,62 %
14.07.2017 06:52 12,1 C 12,8 C 12,2 C 93 % 0 lf 1015,8 hPa 0,0 l/m 0 min 0 min 21 W/m 0,0 km/h (0 Bft) 95,74 %
14.07.2017 06:54 12,1 C 12,8 C 12,2 C 93 % 0 lf 1015,8 hPa 0,0 l/m 0 min 0 min 23 W/m 0,0 km/h (0 Bft) 95,74 %
14.07.2017 06:56 12,1 C 12,8 C 12,2 C 93 % 0 lf 1015,8 hPa 0,0 l/m 0 min 0 min 25 W/m 0,0 km/h (0 Bft) 95,74 %
14.07.2017 06:58 12,1 C 12,8 C 12,2 C 93 % 0 lf 1015,8 hPa 0,0 l/m 0 min 0 min 27 W/m 0,0 km/h (0 Bft) 97,83 %
14.07.2017 07:00 12,1 C 13,3 C 12,2 C 93 % 0 lf 1015,8 hPa 0,0 l/m 0 min 0 min 31 W/m 0,0 km/h (0 Bft) 100,00 %
14.07.2017 07:02 12,2 C 13,3 C 12,2 C 93 % 0 lf 1015,8 hPa 0,0 l/m 0 min 0 min 34 W/m 0,0 km/h (0 Bft) 95,74 %
14.07.2017 07:04 12,2 C 13,3 C 12,2 C 93 % 0 lf 1015,7 hPa 0,0 l/m 0 min 0 min 36 W/m 0,0 km/h (0 Bft) 100,00 %
14.07.2017 07:06 12,2 C 13,3 C 12,2 C 93 % 0 lf 1015,7 hPa 0,0 l/m 0 min 0 min 36 W/m 0,0 km/h (0 Bft) 100,00 %
14.07.2017 07:08 12,2 C 13,3 C 12,2 C 93 % 0 lf 1015,7 hPa 0,0 l/m 0 min 0 min 39 W/m 0,0 km/h (0 Bft) 100,00 %
14.07.2017 07:10 12,2 C 13,3 C 12,2 C 93 % 0 lf 1015,8 hPa 0,0 l/m 0 min 0 min 39 W/m 0,0 km/h (0 Bft) 100,00 %
14.07.2017 07:12 12,3 C 13,3 C 12,2 C 93 % 0 lf 1015,8 hPa 0,0 l/m 0 min 0 min 38 W/m 0,0 km/h (0 Bft) 100,00 %
14.07.2017 07:14 12,3 C 13,3 C 12,2 C 93 % 0 lf 1015,8 hPa 0,0 l/m 0 min 0 min 36 W/m 0,0 km/h (0 Bft) 100,00 %
14.07.2017 07:16 12,3 C 13,3 C 12,2 C 93 % 0 lf 1015,8 hPa 0,0 l/m 0 min 0 min 35 W/m 0,0 km/h (0 Bft) 97,87 %
14.07.2017 07:18 12,3 C 13,3 C 12,2 C 93 % 0 lf 1015,8 hPa 0,0 l/m 0 min 0 min 38 W/m 0,0 km/h (0 Bft) 97,87 %
14.07.2017 07:20 12,3 C 13,3 C 11,7 C 93 % 0 lf 1015,8 hPa 0,0 l/m 0 min 0 min 43 W/m 0,0 km/h (0 Bft) 100,00 %
14.07.2017 07:22 12,4 C 13,3 C 11,7 C 93 % 0 lf 1015,8 hPa 0,0 l/m 0 min 0 min 54 W/m 0,0 km/h (0 Bft) 100,00 %
14.07.2017 07:24 12,4 C 13,3 C 11,7 C 93 % 0 lf 1015,8 hPa 0,0 l/m 0 min 0 min 72 W/m 0,0 km/h (0 Bft) 100,00 %
14.07.2017 07:26 12,4 C 13,3 C 12,2 C 93 % 0 lf 1015,8 hPa 0,0 l/m 0 min 0 min 95 W/m 0,0 km/h (0 Bft) 100,00 %
14.07.2017 07:28 12,4 C 13,3 C 12,2 C 93 % 0 lf 1015,7 hPa 0,0 l/m 0 min 0 min 104 W/m 0,0 km/h (0 Bft) 97,87 %
14.07.2017 07:30 12,4 C 13,9 C 12,2 C 93 % 0 lf 1015,8 hPa 0,0 l/m 2 min 0 min 129 W/m 0,0 km/h (0 Bft) 100,00 %
14.07.2017 07:32 12,4 C 13,9 C 12,2 C 93 % 0 lf 1015,8 hPa 0,0 l/m 2 min 0 min 190 W/m 0,0 km/h (0 Bft) 100,00 %
14.07.2017 07:34 12,5 C 13,9 C 12,8 C 93 % 0 lf 1015,8 hPa 0,0 l/m 2 min 0 min 204 W/m 0,0 km/h (0 Bft) 95,65 %
14.07.2017 07:36 12,5 C 14,4 C 12,8 C 93 % 0 lf 1015,7 hPa 0,0 l/m 2 min 0 min 179 W/m 0,0 km/h (0 Bft) 95,74 %
14.07.2017 07:38 12,5 C 14,4 C 12,8 C 93 % 0 lf 1015,8 hPa 0,0 l/m 2 min 0 min 179 W/m 0,0 km/h (0 Bft) 100,00 %
14.07.2017 07:40 12,6 C 14,4 C 12,8 C 93 % 0 lf 1015,8 hPa 0,0 l/m 2 min 0 min 197 W/m 0,0 km/h (0 Bft) 100,00 %
14.07.2017 07:42 12,6 C 15,0 C 13,3 C 93 % 0 lf 1015,7 hPa 0,0 l/m 2 min 0 min 233 W/m 0,0 km/h (0 Bft) 97,87 %
14.07.2017 07:44 12,6 C 15,0 C 13,9 C 93 % 0 lf 1015,7 hPa 0,0 l/m 2 min 0 min 278 W/m 0,0 km/h (0 Bft) 93,62 %
14.07.2017 07:46 12,6 C 15,6 C 13,9 C 93 % 0 lf 1015,7 hPa 0,0 l/m 2 min 0 min 251 W/m 0,0 km/h (0 Bft) 100,00 %
14.07.2017 07:48 12,7 C 16,1 C 14,4 C 93 % 0 lf 1015,8 hPa 0,0 l/m 2 min 0 min 188 W/m 0,0 km/h (0 Bft) 97,87 %
14.07.2017 07:50 12,7 C 16,1 C 14,4 C 93 % 0 lf 1015,7 hPa 0,0 l/m 2 min 0 min 155 W/m 0,0 km/h (0 Bft) 95,74 %
14.07.2017 07:52 12,7 C 16,1 C 14,4 C 93 % 0 lf 1015,7 hPa 0,0 l/m 0 min 0 min 144 W/m 0,0 km/h (0 Bft) 97,87 %
14.07.2017 07:54 12,8 C 16,1 C 15,0 C 93 % 0 lf 1015,7 hPa 0,0 l/m 0 min 0 min 134 W/m 0,0 km/h (0 Bft) 97,87 %
14.07.2017 07:56 12,9 C 16,7 C 15,0 C 93 % 0 lf 1015,8 hPa 0,0 l/m 0 min 0 min 135 W/m 0,0 km/h (0 Bft) 97,83 %
14.07.2017 07:58 13,0 C 16,7 C 15,0 C 93 % 0 lf 1015,8 hPa 0,0 l/m 0 min 0 min 140 W/m 0,0 km/h (0 Bft) 100,00 %
14.07.2017 08:00 13,1 C 16,7 C 15,0 C 93 % 0 lf 1015,8 hPa 0,0 l/m 0 min 0 min 149 W/m 0,0 km/h (0 Bft) 97,87 %
14.07.2017 08:02 13,2 C 16,7 C 15,6 C 93 % 0 lf 1015,8 hPa 0,0 l/m 0 min 0 min 151 W/m 0,0 km/h (0 Bft) 97,87 %
14.07.2017 08:04 13,3 C 16,7 C 15,6 C 93 % 0 lf 1015,8 hPa 0,0 l/m 0 min 0 min 143 W/m 0,0 km/h (0 Bft) 100,00 %
14.07.2017 08:06 13,4 C 16,7 C 15,0 C 93 % 0 lf 1015,7 hPa 0,0 l/m 0 min 0 min 140 W/m 0,0 km/h (0 Bft) 100,00 %
14.07.2017 08:08 13,4 C 16,7 C 15,0 C 93 % 0 lf 1015,8 hPa 0,0 l/m 0 min 0 min 134 W/m 0,0 km/h (0 Bft) 100,00 %
14.07.2017 08:10 13,6 C 17,2 C 15,0 C 93 % 0 lf 1015,8 hPa 0,0 l/m 0 min 0 min 136 W/m 0,0 km/h (0 Bft) 97,87 %
14.07.2017 08:12 13,7 C 17,2 C 15,0 C 93 % 0 lf 1015,7 hPa 0,0 l/m 0 min 0 min 163 W/m 0,0 km/h (0 Bft) 93,62 %
14.07.2017 08:14 13,7 C 16,7 C 14,4 C 93 % 0 lf 1015,7 hPa 0,0 l/m 0 min 0 min 131 W/m 0,0 km/h (0 Bft) 95,74 %
14.07.2017 08:16 13,8 C 16,7 C 14,4 C 93 % 0 lf 1015,8 hPa 0,0 l/m 0 min 0 min 111 W/m 0,0 km/h (0 Bft) 93,62 %
14.07.2017 08:18 13,9 C 16,7 C 13,9 C 93 % 0 lf 1015,7 hPa 0,0 l/m 0 min 0 min 109 W/m 0,0 km/h (0 Bft) 95,74 %
14.07.2017 08:20 13,9 C 16,1 C 13,9 C 92 % 0 lf 1015,8 hPa 0,0 l/m 0 min 0 min 124 W/m 0,0 km/h (0 Bft) 97,83 %
14.07.2017 08:22 14,0 C 16,1 C 13,9 C 92 % 0 lf 1015,7 hPa 0,0 l/m 0 min 0 min 150 W/m 0,0 km/h (0 Bft) 97,87 %
14.07.2017 08:24 14,1 C 16,1 C 13,9 C 92 % 0 lf 1015,7 hPa 0,0 l/m 2 min 0 min 242 W/m 0,0 km/h (0 Bft) 93,62 %
14.07.2017 08:26 14,2 C 16,1 C 13,9 C 92 % 0 lf 1015,7 hPa 0,0 l/m 2 min 0 min 346 W/m 0,0 km/h (0 Bft) 86,96 %
14.07.2017 08:28 14,2 C 16,1 C 13,9 C 92 % 0 lf 1015,7 hPa 0,0 l/m 2 min 0 min 364 W/m 0,0 km/h (0 Bft) 93,62 %
14.07.2017 08:30 14,2 C 16,1 C 13,9 C 92 % 0 lf 1015,7 hPa 0,0 l/m 2 min 0 min 368 W/m 0,0 km/h (0 Bft) 93,62 %
14.07.2017 08:32 14,2 C 16,7 C 14,4 C 92 % 0 lf 1015,7 hPa 0,0 l/m 2 min 0 min 386 W/m 0,0 km/h (0 Bft) 93,48 %
14.07.2017 08:34 14,2 C 16,7 C 14,4 C 92 % 0 lf 1015,7 hPa 0,0 l/m 2 min 0 min 396 W/m 0,0 km/h (0 Bft) 91,49 %
14.07.2017 08:36 14,3 C 18,9 C 14,4 C 91 % 0 lf 1015,7 hPa 0,0 l/m 2 min 0 min 394 W/m 0,0 km/h (0 Bft) 93,62 %
14.07.2017 08:38 14,4 C 20,6 C 14,4 C 91 % 0 lf 1015,6 hPa 0,0 l/m 2 min 0 min 399 W/m 0,0 km/h (0 Bft) 93,62 %
14.07.2017 08:40 14,5 C 22,8 C 15,0 C 91 % 0 lf 1015,6 hPa 0,0 l/m 2 min 0 min 397 W/m 0,0 km/h (0 Bft) 91,49 %
14.07.2017 08:42 14,6 C 23,9 C 15,0 C 91 % 0 lf 1015,6 hPa 0,0 l/m 2 min 0 min 403 W/m 0,0 km/h (0 Bft) 91,49 %
14.07.2017 08:44 14,7 C 25,6 C 15,0 C 91 % 0 lf 1015,7 hPa 0,0 l/m 2 min 0 min 420 W/m 0,0 km/h (0 Bft) 86,96 %
14.07.2017 08:46 14,8 C 26,1 C 15,0 C 90 % 0 lf 1015,7 hPa 0,0 l/m 2 min 0 min 423 W/m 0,0 km/h (0 Bft) 91,49 %
14.07.2017 08:48 15,0 C 26,7 C 15,6 C 90 % 0 lf 1015,6 hPa 0,0 l/m 2 min 0 min 422 W/m 0,0 km/h (0 Bft) 91,49 %
14.07.2017 08:50 15,2 C 26,1 C 15,6 C 90 % 0 lf 1015,6 hPa 0,0 l/m 2 min 0 min 424 W/m 0,0 km/h (0 Bft) 91,49 %
14.07.2017 08:52 15,4 C 26,1 C 15,6 C 90 % 0 lf 1015,6 hPa 0,0 l/m 2 min 0 min 428 W/m 0,0 km/h (0 Bft) 89,36 %
14.07.2017 08:54 15,6 C 26,7 C 15,6 C 89 % 0 lf 1015,7 hPa 0,0 l/m 2 min 0 min 442 W/m 0,0 km/h (0 Bft) 91,49 %
14.07.2017 08:56 15,7 C 26,7 C 16,1 C 88 % 0 lf 1015,6 hPa 0,0 l/m 2 min 0 min 446 W/m 0,0 km/h (0 Bft) 91,30 %
14.07.2017 08:58 15,9 C 27,8 C 16,1 C 87 % 0 lf 1015,6 hPa 0,0 l/m 2 min 0 min 451 W/m 0,0 km/h (0 Bft) 89,36 %
14.07.2017 09:00 16,1 C 28,3 C 16,1 C 86 % 0 lf 1015,6 hPa 0,0 l/m 2 min 0 min 462 W/m 0,0 km/h (0 Bft) 85,11 %
14.07.2017 09:02 16,2 C 28,3 C 16,7 C 85 % 0 lf 1015,6 hPa 0,0 l/m 2 min 0 min 474 W/m 0,0 km/h (0 Bft) 89,36 %
14.07.2017 09:04 16,4 C 28,3 C 16,7 C 84 % 0 lf 1015,6 hPa 0,0 l/m 2 min 0 min 483 W/m 0,0 km/h (0 Bft) 95,74 %
14.07.2017 09:06 16,6 C 28,9 C 16,7 C 82 % 0 lf 1015,7 hPa 0,0 l/m 2 min 0 min 495 W/m 0,0 km/h (0 Bft) 91,49 %
14.07.2017 09:08 16,8 C 29,4 C 17,2 C 81 % 0 lf 1015,6 hPa 0,0 l/m 2 min 0 min 492 W/m 0,0 km/h (0 Bft) 95,65 %
14.07.2017 09:10 17,1 C 29,4 C 17,2 C 80 % 0 lf 1015,7 hPa 0,0 l/m 2 min 0 min 512 W/m 0,0 km/h (0 Bft) 93,62 %
14.07.2017 09:12 17,3 C 30,0 C 17,2 C 78 % 0 lf 1015,7 hPa 0,0 l/m 2 min 0 min 510 W/m 0,0 km/h (0 Bft) 93,62 %
14.07.2017 09:14 17,5 C 31,1 C 17,2 C 78 % 0 lf 1015,7 hPa 0,0 l/m 2 min 0 min 503 W/m 0,0 km/h (0 Bft) 95,74 %
14.07.2017 09:16 17,7 C 30,6 C 17,8 C 77 % 0 lf 1015,8 hPa 0,0 l/m 2 min 0 min 430 W/m 0,0 km/h (0 Bft) 97,87 %
14.07.2017 09:18 17,9 C 30,6 C 17,8 C 74 % 0 lf 1015,8 hPa 0,0 l/m 2 min 0 min 506 W/m 0,0 km/h (0 Bft) 95,65 %
14.07.2017 09:20 18,1 C 30,0 C 17,2 C 71 % 0 lf 1015,9 hPa 0,0 l/m 2 min 0 min 442 W/m 0,0 km/h (0 Bft) 93,62 %
14.07.2017 09:22 18,2 C 30,0 C 17,2 C 70 % 0 lf 1015,9 hPa 0,0 l/m 2 min 0 min 491 W/m 0,0 km/h (0 Bft) 97,87 %
14.07.2017 09:24 18,3 C 30,6 C 17,8 C 71 % 0 lf 1015,9 hPa 0,0 l/m 2 min 0 min 553 W/m 0,0 km/h (0 Bft) 97,87 %
14.07.2017 09:26 18,6 C 31,1 C 18,3 C 70 % 0 lf 1016,0 hPa 0,0 l/m 2 min 0 min 557 W/m 0,0 km/h (0 Bft) 97,87 %
14.07.2017 09:28 18,7 C 30,6 C 18,3 C 69 % 0 lf 1016,0 hPa 0,0 l/m 2 min 0 min 561 W/m 0,0 km/h (0 Bft) 97,87 %
14.07.2017 09:30 18,9 C 30,0 C 18,9 C 68 % 0 lf 1016,0 hPa 0,0 l/m 2 min 0 min 505 W/m 0,0 km/h (0 Bft) 97,87 %
14.07.2017 09:32 19,1 C 30,0 C 18,9 C 67 % 0 lf 1016,0 hPa 0,0 l/m 2 min 0 min 520 W/m 0,0 km/h (0 Bft) 97,83 %
14.07.2017 09:34 19,2 C 30,6 C 18,9 C 66 % 0 lf 1016,0 hPa 0,0 l/m 2 min 0 min 567 W/m 0,0 km/h (0 Bft) 95,74 %
14.07.2017 09:36 19,4 C 30,0 C 19,4 C 66 % 0 lf 1016,0 hPa 0,0 l/m 2 min 0 min 570 W/m 0,0 km/h (0 Bft) 97,87 %
14.07.2017 09:38 19,5 C 30,6 C 20,6 C 66 % 0 lf 1015,9 hPa 0,0 l/m 2 min 0 min 572 W/m 0,0 km/h (0 Bft) 97,87 %
14.07.2017 09:40 19,6 C 30,0 C 22,2 C 67 % 0 lf 1015,9 hPa 0,0 l/m 2 min 0 min 579 W/m 0,0 km/h (0 Bft) 95,74 %
14.07.2017 09:42 19,8 C 30,6 C 23,3 C 65 % 0 lf 1015,9 hPa 0,0 l/m 2 min 0 min 588 W/m 0,0 km/h (0 Bft) 97,83 %
14.07.2017 09:44 19,9 C 30,6 C 24,4 C 65 % 0 lf 1015,9 hPa 0,0 l/m 2 min 0 min 600 W/m 0,0 km/h (0 Bft) 100,00 %
14.07.2017 09:46 20,0 C 31,1 C 24,4 C 65 % 0 lf 1015,9 hPa 0,0 l/m 2 min 0 min 607 W/m 0,0 km/h (0 Bft) 97,87 %
14.07.2017 09:48 20,1 C 31,1 C 24,4 C 65 % 0 lf 1016,0 hPa 0,0 l/m 2 min 0 min 615 W/m 0,0 km/h (0 Bft) 100,00 %
14.07.2017 09:50 20,2 C 30,0 C 24,4 C 64 % 0 lf 1015,9 hPa 0,0 l/m 2 min 0 min 597 W/m 0,0 km/h (0 Bft) 100,00 %
14.07.2017 09:52 20,3 C 31,1 C 25,0 C 64 % 0 lf 1015,9 hPa 0,0 l/m 2 min 0 min 790 W/m 0,0 km/h (0 Bft) 100,00 %
14.07.2017 09:54 20,4 C 31,1 C 25,0 C 64 % 0 lf 1015,9 hPa 0,0 l/m 2 min 0 min 628 W/m 0,0 km/h (0 Bft) 100,00 %
14.07.2017 09:56 20,6 C 31,1 C 25,6 C 64 % 0 lf 1015,9 hPa 0,0 l/m 2 min 0 min 632 W/m 0,0 km/h (0 Bft) 100,00 %
14.07.2017 09:58 20,7 C 32,2 C 25,6 C 62 % 0 lf 1015,9 hPa 0,0 l/m 2 min 0 min 757 W/m 0,0 km/h (0 Bft) 100,00 %
14.07.2017 10:00 20,8 C 31,7 C 25,6 C 63 % 0 lf 1015,9 hPa 0,0 l/m 2 min 0 min 604 W/m 0,0 km/h (0 Bft) 100,00 %
14.07.2017 10:02 20,9 C 32,2 C 25,6 C 62 % 0 lf 1015,9 hPa 0,0 l/m 2 min 0 min 606 W/m 0,0 km/h (0 Bft) 97,87 %
14.07.2017 10:04 20,9 C 31,1 C 25,6 C 61 % 0 lf 1015,8 hPa 0,0 l/m 2 min 0 min 611 W/m 0,0 km/h (0 Bft) 95,74 %
14.07.2017 10:06 21,0 C 29,4 C 24,4 C 60 % 0 lf 1015,8 hPa 0,0 l/m 2 min 0 min 615 W/m 0,0 km/h (0 Bft) 100,00 %
14.07.2017 10:08 21,1 C 28,3 C 25,0 C 59 % 0 lf 1015,8 hPa 0,0 l/m 2 min 0 min 624 W/m 16,7 km/h (3 Bft) 97,87 %
14.07.2017 10:10 21,1 C 30,0 C 25,0 C 60 % 0 lf 1015,7 hPa 0,0 l/m 2 min 0 min 840 W/m 8,4 km/h (2 Bft) 97,87 %
14.07.2017 10:12 21,2 C 30,6 C 25,6 C 62 % 0 lf 1015,7 hPa 0,0 l/m 2 min 0 min 666 W/m 10,5 km/h (2 Bft) 100,00 %
14.07.2017 10:14 21,3 C 29,4 C 26,1 C 61 % 0 lf 1015,7 hPa 0,0 l/m 2 min 0 min 642 W/m 10,5 km/h (2 Bft) 100,00 %
14.07.2017 10:16 21,4 C 31,1 C 26,1 C 61 % 0 lf 1015,8 hPa 0,0 l/m 2 min 0 min 676 W/m 12,6 km/h (3 Bft) 97,87 %
14.07.2017 10:18 21,4 C 30,0 C 26,1 C 60 % 0 lf 1015,9 hPa 0,0 l/m 2 min 0 min 647 W/m 14,6 km/h (3 Bft) 97,83 %
14.07.2017 10:20 21,5 C 30,0 C 25,6 C 58 % 0 lf 1015,8 hPa 0,0 l/m 2 min 0 min 652 W/m 16,7 km/h (3 Bft) 100,00 %
14.07.2017 10:22 21,6 C 31,7 C 25,6 C 59 % 0 lf 1015,8 hPa 0,0 l/m 2 min 0 min 670 W/m 14,6 km/h (3 Bft) 100,00 %
14.07.2017 10:24 21,6 C 31,7 C 26,1 C 60 % 0 lf 1015,9 hPa 0,0 l/m 2 min 0 min 664 W/m 16,7 km/h (3 Bft) 95,74 %
14.07.2017 10:26 21,7 C 31,1 C 26,7 C 60 % 0 lf 1015,8 hPa 0,0 l/m 2 min 0 min 654 W/m 18,8 km/h (3 Bft) 93,62 %
14.07.2017 10:28 21,7 C 31,1 C 26,1 C 59 % 0 lf 1015,7 hPa 0,0 l/m 2 min 0 min 852 W/m 18,8 km/h (3 Bft) 97,87 %
14.07.2017 10:30 21,7 C 31,1 C 26,1 C 58 % 0 lf 1015,8 hPa 0,0 l/m 2 min 0 min 702 W/m 18,8 km/h (3 Bft) 100,00 %
14.07.2017 10:32 21,7 C 31,1 C 26,1 C 57 % 0 lf 1015,8 hPa 0,0 l/m 2 min 0 min 706 W/m 16,7 km/h (3 Bft) 100,00 %
14.07.2017 10:34 21,7 C 31,1 C 26,1 C 58 % 0 lf 1015,8 hPa 0,0 l/m 2 min 0 min 709 W/m 16,7 km/h (3 Bft) 97,87 %
14.07.2017 10:36 21,7 C 32,2 C 26,1 C 59 % 0 lf 1015,8 hPa 0,0 l/m 2 min 0 min 713 W/m 16,7 km/h (3 Bft) 97,87 %
14.07.2017 10:38 21,7 C 30,6 C 26,1 C 57 % 0 lf 1015,8 hPa 0,0 l/m 2 min 0 min 717 W/m 20,9 km/h (4 Bft) 100,00 %
14.07.2017 10:40 21,7 C 30,6 C 26,7 C 59 % 0 lf 1015,8 hPa 0,0 l/m 2 min 0 min 721 W/m 14,6 km/h (3 Bft) 100,00 %
14.07.2017 10:42 21,8 C 31,1 C 27,2 C 60 % 0 lf 1015,7 hPa 0,0 l/m 2 min 0 min 719 W/m 16,7 km/h (3 Bft) 97,83 %
14.07.2017 10:44 21,8 C 30,0 C 26,7 C 57 % 0 lf 1015,8 hPa 0,0 l/m 2 min 0 min 697 W/m 25,1 km/h (4 Bft) 97,87 %
14.07.2017 10:46 21,8 C 31,1 C 27,2 C 57 % 0 lf 1015,8 hPa 0,0 l/m 2 min 0 min 703 W/m 18,8 km/h (3 Bft) 97,87 %
14.07.2017 10:48 21,8 C 30,6 C 27,2 C 57 % 0 lf 1015,8 hPa 0,0 l/m 2 min 0 min 706 W/m 23,0 km/h (4 Bft) 95,74 %
14.07.2017 10:50 21,8 C 30,0 C 27,2 C 57 % 0 lf 1015,7 hPa 0,0 l/m 2 min 0 min 713 W/m 20,9 km/h (4 Bft) 95,74 %
14.07.2017 10:52 21,9 C 31,7 C 26,7 C 58 % 0 lf 1015,8 hPa 0,0 l/m 2 min 0 min 716 W/m 16,7 km/h (3 Bft) 97,83 %
14.07.2017 10:54 21,9 C 31,1 C 27,2 C 57 % 0 lf 1015,7 hPa 0,0 l/m 2 min 0 min 722 W/m 16,7 km/h (3 Bft) 97,87 %
14.07.2017 10:56 22,1 C 32,2 C 27,2 C 57 % 0 lf 1015,7 hPa 0,0 l/m 2 min 0 min 733 W/m 12,6 km/h (3 Bft) 93,62 %
14.07.2017 10:58 22,1 C 31,1 C 27,2 C 57 % 0 lf 1015,7 hPa 0,0 l/m 2 min 0 min 732 W/m 10,5 km/h (2 Bft) 95,74 %
14.07.2017 11:00 22,2 C 31,1 C 27,2 C 57 % 0 lf 1015,7 hPa 0,0 l/m 2 min 0 min 729 W/m 18,8 km/h (3 Bft) 95,74 %
14.07.2017 11:02 22,2 C 32,2 C 27,2 C 57 % 0 lf 1015,7 hPa 0,0 l/m 2 min 0 min 730 W/m 14,6 km/h (3 Bft) 97,87 %
14.07.2017 11:04 22,3 C 31,7 C 27,2 C 56 % 0 lf 1015,7 hPa 0,0 l/m 2 min 0 min 734 W/m 8,4 km/h (2 Bft) 95,65 %
14.07.2017 11:06 22,4 C 31,7 C 27,8 C 58 % 0 lf 1015,6 hPa 0,0 l/m 2 min 0 min 734 W/m 12,6 km/h (3 Bft) 97,87 %
14.07.2017 11:08 22,4 C 32,2 C 27,8 C 56 % 0 lf 1015,6 hPa 0,0 l/m 2 min 0 min 757 W/m 16,7 km/h (3 Bft) 95,74 %
14.07.2017 11:10 22,5 C 31,7 C 27,8 C 56 % 0 lf 1015,6 hPa 0,0 l/m 2 min 0 min 761 W/m 14,6 km/h (3 Bft) 95,74 %
14.07.2017 11:12 22,6 C 32,8 C 27,8 C 55 % 0 lf 1015,6 hPa 0,0 l/m 2 min 0 min 760 W/m 14,6 km/h (3 Bft) 97,87 %
14.07.2017 11:14 22,7 C 33,3 C 27,8 C 52 % 0 lf 1015,6 hPa 0,0 l/m 2 min 0 min 760 W/m 14,6 km/h (3 Bft) 93,62 %
14.07.2017 11:16 22,7 C 33,3 C 27,8 C 53 % 0 lf 1015,6 hPa 0,0 l/m 2 min 0 min 769 W/m 16,7 km/h (3 Bft) 91,30 %
14.07.2017 11:18 22,8 C 32,8 C 27,8 C 54 % 0 lf 1015,7 hPa 0,0 l/m 2 min 0 min 772 W/m 16,7 km/h (3 Bft) 97,87 %
14.07.2017 11:20 22,8 C 32,8 C 28,3 C 53 % 0 lf 1015,6 hPa 0,0 l/m 2 min 0 min 767 W/m 16,7 km/h (3 Bft) 93,62 %
14.07.2017 11:22 22,9 C 33,3 C 28,3 C 52 % 0 lf 1015,6 hPa 0,0 l/m 2 min 0 min 792 W/m 16,7 km/h (3 Bft) 98,00 %
14.07.2017 11:24 22,9 C 32,8 C 28,3 C 53 % 0 lf 1015,6 hPa 0,0 l/m 2 min 0 min 793 W/m 18,8 km/h (3 Bft) 95,74 %
14.07.2017 11:26 23,0 C 32,8 C 28,3 C 52 % 0 lf 1015,6 hPa 0,0 l/m 2 min 0 min 794 W/m 14,6 km/h (3 Bft) 97,83 %
14.07.2017 11:28 23,1 C 32,8 C 27,2 C 52 % 0 lf 1015,6 hPa 0,0 l/m 2 min 0 min 786 W/m 12,6 km/h (3 Bft) 93,62 %
14.07.2017 11:30 23,2 C 31,1 C 26,1 C 53 % 0 lf 1015,5 hPa 0,0 l/m 2 min 0 min 788 W/m 23,0 km/h (4 Bft) 93,62 %
14.07.2017 11:32 23,2 C 30,0 C 25,0 C 51 % 0 lf 1015,6 hPa 0,0 l/m 2 min 0 min 792 W/m 12,6 km/h (3 Bft) 91,49 %
14.07.2017 11:34 23,2 C 30,6 C 25,0 C 51 % 0 lf 1015,6 hPa 0,0 l/m 2 min 0 min 794 W/m 25,1 km/h (4 Bft) 95,74 %
14.07.2017 11:36 23,3 C 31,1 C 25,0 C 51 % 0 lf 1015,5 hPa 0,0 l/m 2 min 0 min 806 W/m 20,9 km/h (4 Bft) 91,49 %
14.07.2017 11:38 23,3 C 31,1 C 25,6 C 50 % 0 lf 1015,6 hPa 0,0 l/m 2 min 0 min 753 W/m 18,8 km/h (3 Bft) 91,30 %
14.07.2017 11:40 23,3 C 28,3 C 25,0 C 50 % 0 lf 1015,6 hPa 0,0 l/m 2 min 0 min 538 W/m 14,6 km/h (3 Bft) 93,62 %
14.07.2017 11:42 23,3 C 28,3 C 26,1 C 51 % 0 lf 1015,6 hPa 0,0 l/m 2 min 0 min 531 W/m 14,6 km/h (3 Bft) 95,74 %
14.07.2017 11:44 23,3 C 30,0 C 27,2 C 50 % 0 lf 1015,6 hPa 0,0 l/m 2 min 0 min 762 W/m 20,9 km/h (4 Bft) 93,62 %
14.07.2017 11:46 23,3 C 32,2 C 28,9 C 48 % 0 lf 1015,6 hPa 0,0 l/m 2 min 0 min 905 W/m 18,8 km/h (3 Bft) 93,62 %
14.07.2017 11:48 23,4 C 31,1 C 28,9 C 50 % 0 lf 1015,6 hPa 0,0 l/m 2 min 0 min 905 W/m 12,6 km/h (3 Bft) 93,62 %
14.07.2017 11:50 23,4 C 30,0 C 27,8 C 50 % 0 lf 1015,6 hPa 0,0 l/m 2 min 0 min 524 W/m 16,7 km/h (3 Bft) 91,30 %
14.07.2017 11:52 23,4 C 28,3 C 26,1 C 50 % 0 lf 1015,6 hPa 0,0 l/m 0 min 0 min 385 W/m 18,8 km/h (3 Bft) 91,49 %
14.07.2017 11:54 23,3 C 26,7 C 25,0 C 49 % 0 lf 1015,6 hPa 0,0 l/m 0 min 0 min 356 W/m 20,9 km/h (4 Bft) 89,36 %
14.07.2017 11:56 23,2 C 26,1 C 24,4 C 48 % 0 lf 1015,6 hPa 0,0 l/m 0 min 0 min 344 W/m 20,9 km/h (4 Bft) 95,74 %
14.07.2017 11:58 23,1 C 25,6 C 23,9 C 50 % 0 lf 1015,5 hPa 0,0 l/m 0 min 0 min 337 W/m 14,6 km/h (3 Bft) 95,74 %
14.07.2017 12:00 23,0 C 25,0 C 23,9 C 50 % 0 lf 1015,5 hPa 0,0 l/m 0 min 0 min 339 W/m 10,5 km/h (2 Bft) 95,74 %
14.07.2017 12:02 22,8 C 25,6 C 23,9 C 51 % 0 lf 1015,5 hPa 0,0 l/m 0 min 0 min 346 W/m 10,5 km/h (2 Bft) 93,48 %
14.07.2017 12:04 22,7 C 25,6 C 23,9 C 52 % 0 lf 1015,5 hPa 0,0 l/m 0 min 0 min 367 W/m 16,7 km/h (3 Bft) 95,74 %
14.07.2017 12:06 22,7 C 25,0 C 23,9 C 53 % 0 lf 1015,5 hPa 0,0 l/m 2 min 0 min 404 W/m 14,6 km/h (3 Bft) 91,49 %
14.07.2017 12:08 22,6 C 25,0 C 23,9 C 53 % 0 lf 1015,5 hPa 0,0 l/m 2 min 0 min 460 W/m 25,1 km/h (4 Bft) 95,74 %
14.07.2017 12:12 22,5 C 28,3 C 26,1 C 54 % 0 lf 1015,5 hPa 0,0 l/m 4 min 0 min 627 W/m 16,7 km/h (3 Bft) 93,98 %
14.07.2017 12:14 22,6 C 28,3 C 26,7 C 53 % 0 lf 1015,5 hPa 0,0 l/m 2 min 0 min 616 W/m 16,7 km/h (3 Bft) 96,55 %
14.07.2017 12:16 22,6 C 26,7 C 26,1 C 53 % 0 lf 1015,6 hPa 0,0 l/m 2 min 0 min 455 W/m 23,0 km/h (4 Bft) 94,29 %
14.07.2017 12:18 22,6 C 26,7 C 25,6 C 53 % 0 lf 1015,5 hPa 0,0 l/m 2 min 0 min 440 W/m 18,8 km/h (3 Bft) 97,87 %
14.07.2017 12:20 22,6 C 26,7 C 25,6 C 55 % 0 lf 1015,5 hPa 0,0 l/m 2 min 0 min 414 W/m 16,7 km/h (3 Bft) 94,92 %
14.07.2017 12:22 22,5 C 26,1 C 25,0 C 53 % 0 lf 1015,5 hPa 0,0 l/m 0 min 0 min 388 W/m 16,7 km/h (3 Bft) 97,14 %
14.07.2017 12:24 22,5 C 25,6 C 25,0 C 53 % 0 lf 1015,5 hPa 0,0 l/m 0 min 0 min 391 W/m 16,7 km/h (3 Bft) 93,62 %
14.07.2017 12:26 22,5 C 25,6 C 24,4 C 53 % 0 lf 1015,4 hPa 0,0 l/m 0 min 0 min 392 W/m 18,8 km/h (3 Bft) 93,62 %
14.07.2017 12:28 22,5 C 25,6 C 24,4 C 53 % 0 lf 1015,5 hPa 0,0 l/m 0 min 0 min 388 W/m 14,6 km/h (3 Bft) 100,00 %
14.07.2017 12:30 22,4 C 25,0 C 24,4 C 52 % 0 lf 1015,5 hPa 0,0 l/m 0 min 0 min 389 W/m 12,6 km/h (3 Bft) 100,00 %
14.07.2017 12:32 22,4 C 25,6 C 24,4 C 54 % 0 lf 1015,6 hPa 0,0 l/m 0 min 0 min 365 W/m 16,7 km/h (3 Bft) 93,62 %
14.07.2017 12:34 22,3 C 24,4 C 23,9 C 52 % 0 lf 1015,5 hPa 0,0 l/m 0 min 0 min 342 W/m 14,6 km/h (3 Bft) 97,87 %
14.07.2017 12:36 22,3 C 24,4 C 23,3 C 53 % 0 lf 1015,5 hPa 0,0 l/m 0 min 0 min 337 W/m 12,6 km/h (3 Bft) 100,00 %
14.07.2017 12:38 22,2 C 24,4 C 23,3 C 54 % 0 lf 1015,5 hPa 0,0 l/m 0 min 0 min 334 W/m 18,8 km/h (3 Bft) 100,00 %
14.07.2017 12:40 22,2 C 24,4 C 23,3 C 54 % 0 lf 1015,5 hPa 0,0 l/m 0 min 0 min 332 W/m 16,7 km/h (3 Bft) 100,00 %
14.07.2017 12:42 22,1 C 23,9 C 23,3 C 54 % 0 lf 1015,4 hPa 0,0 l/m 0 min 0 min 333 W/m 27,2 km/h (4 Bft) 100,00 %
14.07.2017 12:44 22,1 C 24,4 C 23,3 C 55 % 0 lf 1015,4 hPa 0,0 l/m 0 min 0 min 353 W/m 14,6 km/h (3 Bft) 95,74 %
14.07.2017 12:46 22,0 C 23,9 C 23,3 C 55 % 0 lf 1015,5 hPa 0,0 l/m 0 min 0 min 370 W/m 18,8 km/h (3 Bft) 100,00 %
14.07.2017 12:48 22,0 C 23,9 C 23,3 C 56 % 0 lf 1015,6 hPa 0,0 l/m 0 min 0 min 322 W/m 16,7 km/h (3 Bft) 100,00 %
14.07.2017 12:50 21,9 C 23,3 C 22,8 C 55 % 0 lf 1015,5 hPa 0,0 l/m 0 min 0 min 242 W/m 16,7 km/h (3 Bft) 100,00 %
14.07.2017 12:52 21,9 C 23,3 C 22,2 C 55 % 0 lf 1015,5 hPa 0,0 l/m 0 min 0 min 208 W/m 18,8 km/h (3 Bft) 97,14 %
14.07.2017 12:54 21,8 C 23,3 C 22,2 C 56 % 0 lf 1015,5 hPa 0,0 l/m 0 min 0 min 215 W/m 18,8 km/h (3 Bft) 95,74 %
14.07.2017 12:56 21,7 C 23,3 C 22,2 C 55 % 0 lf 1015,5 hPa 0,0 l/m 0 min 0 min 241 W/m 10,5 km/h (2 Bft) 97,87 %
14.07.2017 12:58 21,7 C 23,3 C 22,2 C 57 % 0 lf 1015,5 hPa 0,0 l/m 0 min 0 min 291 W/m 6,3 km/h (2 Bft) 97,87 %
14.07.2017 13:00 21,7 C 23,9 C 22,8 C 58 % 0 lf 1015,5 hPa 0,0 l/m 0 min 0 min 354 W/m 14,6 km/h (3 Bft) 95,74 %
14.07.2017 13:02 21,7 C 24,4 C 23,3 C 57 % 0 lf 1015,5 hPa 0,0 l/m 2 min 0 min 430 W/m 16,7 km/h (3 Bft) 95,74 %
14.07.2017 13:04 21,7 C 25,0 C 23,9 C 57 % 0 lf 1015,5 hPa 0,0 l/m 2 min 0 min 489 W/m 14,6 km/h (3 Bft) 97,83 %
14.07.2017 13:06 21,8 C 25,6 C 24,4 C 57 % 0 lf 1015,4 hPa 0,0 l/m 2 min 0 min 516 W/m 16,7 km/h (3 Bft) 97,87 %
14.07.2017 13:08 21,8 C 26,7 C 25,6 C 56 % 0 lf 1015,4 hPa 0,0 l/m 2 min 0 min 602 W/m 16,7 km/h (3 Bft) 98,31 %
14.07.2017 13:10 21,9 C 27,2 C 26,1 C 57 % 0 lf 1015,4 hPa 0,0 l/m 2 min 0 min 720 W/m 16,7 km/h (3 Bft) 97,14 %
14.07.2017 13:12 22,0 C 27,2 C 25,6 C 56 % 0 lf 1015,4 hPa 0,0 l/m 2 min 0 min 602 W/m 10,5 km/h (2 Bft) 93,62 %
14.07.2017 13:14 22,1 C 26,7 C 26,1 C 58 % 0 lf 1015,4 hPa 0,0 l/m 2 min 0 min 465 W/m 8,4 km/h (2 Bft) 97,83 %
14.07.2017 13:16 22,2 C 26,7 C 26,1 C 57 % 0 lf 1015,4 hPa 0,0 l/m 2 min 0 min 557 W/m 8,4 km/h (2 Bft) 95,74 %
14.07.2017 13:18 22,3 C 27,2 C 26,1 C 58 % 0 lf 1015,3 hPa 0,0 l/m 2 min 0 min 588 W/m 10,5 km/h (2 Bft) 97,87 %
14.07.2017 13:20 22,4 C 27,8 C 26,1 C 58 % 0 lf 1015,3 hPa 0,0 l/m 2 min 0 min 465 W/m 12,6 km/h (3 Bft) 98,31 %
14.07.2017 13:22 22,5 C 27,8 C 25,6 C 58 % 0 lf 1015,3 hPa 0,0 l/m 2 min 0 min 478 W/m 12,6 km/h (3 Bft) 97,14 %
14.07.2017 13:24 22,6 C 27,2 C 25,6 C 56 % 0 lf 1015,3 hPa 0,0 l/m 2 min 0 min 458 W/m 12,6 km/h (3 Bft) 97,87 %
14.07.2017 13:26 22,7 C 27,2 C 25,6 C 57 % 0 lf 1015,2 hPa 0,0 l/m 0 min 0 min 364 W/m 10,5 km/h (2 Bft) 97,83 %
14.07.2017 13:28 22,7 C 27,2 C 25,0 C 56 % 0 lf 1015,2 hPa 0,0 l/m 0 min 0 min 306 W/m 10,5 km/h (2 Bft) 100,00 %
14.07.2017 13:30 22,7 C 26,1 C 23,9 C 55 % 0 lf 1015,4 hPa 0,0 l/m 0 min 0 min 270 W/m 18,8 km/h (3 Bft) 100,00 %
14.07.2017 13:32 22,7 C 25,6 C 23,9 C 56 % 0 lf 1015,3 hPa 0,0 l/m 0 min 0 min 244 W/m 10,5 km/h (2 Bft) 100,00 %
14.07.2017 13:34 22,7 C 25,0 C 23,3 C 56 % 0 lf 1015,3 hPa 0,0 l/m 0 min 0 min 210 W/m 8,4 km/h (2 Bft) 100,00 %
14.07.2017 13:36 22,7 C 24,4 C 22,8 C 56 % 0 lf 1015,1 hPa 0,0 l/m 0 min 0 min 182 W/m 12,6 km/h (3 Bft) 97,87 %
14.07.2017 13:38 22,6 C 24,4 C 22,2 C 57 % 0 lf 1015,3 hPa 0,0 l/m 0 min 0 min 147 W/m 8,4 km/h (2 Bft) 100,00 %
14.07.2017 13:40 22,6 C 23,9 C 21,7 C 57 % 0 lf 1015,3 hPa 0,0 l/m 0 min 0 min 124 W/m 8,4 km/h (2 Bft) 97,87 %
14.07.2017 13:42 22,5 C 23,3 C 21,7 C 57 % 0 lf 1015,2 hPa 0,0 l/m 0 min 0 min 127 W/m 8,4 km/h (2 Bft) 97,87 %
14.07.2017 13:44 22,4 C 22,8 C 21,1 C 57 % 0 lf 1015,2 hPa 0,0 l/m 0 min 0 min 146 W/m 12,6 km/h (3 Bft) 100,00 %
14.07.2017 13:46 22,3 C 22,8 C 21,7 C 57 % 0 lf 1015,1 hPa 0,0 l/m 0 min 0 min 193 W/m 14,6 km/h (3 Bft) 97,87 %
14.07.2017 13:48 22,2 C 22,8 C 22,2 C 58 % 2 lf 1015,2 hPa 0,0 l/m 0 min 2 min 272 W/m 16,7 km/h (3 Bft) 97,87 %
14.07.2017 13:50 22,2 C 22,8 C 22,8 C 58 % 0 lf 1015,1 hPa 0,0 l/m 0 min 0 min 337 W/m 14,6 km/h (3 Bft) 98,28 %
14.07.2017 13:52 22,1 C 23,9 C 23,3 C 58 % 0 lf 1015,1 hPa 0,0 l/m 0 min 0 min 388 W/m 12,6 km/h (3 Bft) 97,14 %
14.07.2017 13:54 22,1 C 23,9 C 23,9 C 58 % 0 lf 1015,0 hPa 0,0 l/m 2 min 0 min 432 W/m 12,6 km/h (3 Bft) 95,74 %
14.07.2017 13:56 22,1 C 24,4 C 23,9 C 58 % 0 lf 1015,0 hPa 0,0 l/m 0 min 0 min 380 W/m 10,5 km/h (2 Bft) 95,74 %
14.07.2017 13:58 22,1 C 23,9 C 23,9 C 58 % 0 lf 1015,0 hPa 0,0 l/m 0 min 0 min 274 W/m 12,6 km/h (3 Bft) 97,87 %
14.07.2017 14:00 22,1 C 23,9 C 22,8 C 59 % 0 lf 1015,0 hPa 0,0 l/m 0 min 0 min 217 W/m 10,5 km/h (2 Bft) 95,74 %
14.07.2017 14:02 22,1 C 23,3 C 22,8 C 58 % 0 lf 1015,0 hPa 0,0 l/m 0 min 0 min 169 W/m 10,5 km/h (2 Bft) 97,83 %
14.07.2017 14:04 22,1 C 23,3 C 22,2 C 59 % 0 lf 1015,1 hPa 0,0 l/m 0 min 0 min 126 W/m 8,4 km/h (2 Bft) 97,87 %
14.07.2017 14:06 22,0 C 22,8 C 21,1 C 58 % 0 lf 1015,0 hPa 0,0 l/m 0 min 0 min 90 W/m 14,6 km/h (3 Bft) 95,74 %
14.07.2017 14:08 21,9 C 21,7 C 20,0 C 59 % 3 lf 1015,0 hPa 0,0 l/m 0 min 2 min 60 W/m 16,7 km/h (3 Bft) 97,87 %
14.07.2017 14:10 21,9 C 21,7 C 19,4 C 60 % 1 lf 1015,0 hPa 0,0 l/m 0 min 2 min 40 W/m 14,6 km/h (3 Bft) 97,87 %
14.07.2017 14:12 21,8 C 20,6 C 18,3 C 61 % 15 lf 1015,1 hPa 0,0 l/m 0 min 2 min 30 W/m 14,6 km/h (3 Bft) 97,87 %
14.07.2017 14:14 21,8 C 18,9 C 16,7 C 62 % 15 lf 1015,2 hPa 0,0 l/m 0 min 2 min 26 W/m 6,3 km/h (2 Bft) 95,65 %
14.07.2017 14:16 21,7 C 18,3 C 15,6 C 63 % 15 lf 1015,2 hPa 0,0 l/m 0 min 2 min 25 W/m 14,6 km/h (3 Bft) 95,74 %
14.07.2017 14:18 21,5 C 17,2 C 15,0 C 65 % 15 lf 1015,3 hPa 0,0 l/m 0 min 2 min 28 W/m 16,7 km/h (3 Bft) 95,74 %
14.07.2017 14:20 21,2 C 16,7 C 15,0 C 66 % 15 lf 1015,3 hPa 0,2 l/m 0 min 2 min 41 W/m 12,6 km/h (3 Bft) 98,31 %
14.07.2017 14:22 21,1 C 16,1 C 15,0 C 67 % 15 lf 1015,3 hPa 0,0 l/m 0 min 2 min 57 W/m 8,4 km/h (2 Bft) 94,29 %
14.07.2017 14:24 20,9 C 16,1 C 15,0 C 68 % 15 lf 1015,3 hPa 0,0 l/m 0 min 2 min 71 W/m 10,5 km/h (2 Bft) 97,87 %
14.07.2017 14:26 20,7 C 16,1 C 15,0 C 69 % 15 lf 1015,2 hPa 0,0 l/m 0 min 2 min 85 W/m 10,5 km/h (2 Bft) 97,83 %
14.07.2017 14:28 20,6 C 16,1 C 15,0 C 70 % 15 lf 1015,2 hPa 0,0 l/m 0 min 2 min 91 W/m 6,3 km/h (2 Bft) 93,62 %
14.07.2017 14:30 20,4 C 16,7 C 15,6 C 70 % 15 lf 1015,1 hPa 0,0 l/m 0 min 0 min 86 W/m 10,5 km/h (2 Bft) 97,87 %
14.07.2017 14:32 20,3 C 16,7 C 15,6 C 71 % 15 lf 1015,1 hPa 0,0 l/m 0 min 0 min 83 W/m 6,3 km/h (2 Bft) 97,87 %
14.07.2017 14:34 20,3 C 16,7 C 15,6 C 72 % 15 lf 1015,1 hPa 0,0 l/m 0 min 0 min 86 W/m 8,4 km/h (2 Bft) 95,74 %
14.07.2017 14:36 20,2 C 17,2 C 15,6 C 72 % 15 lf 1015,1 hPa 0,0 l/m 0 min 0 min 84 W/m 6,3 km/h (2 Bft) 100,00 %
14.07.2017 14:38 20,1 C 17,2 C 15,6 C 72 % 15 lf 1015,2 hPa 0,0 l/m 0 min 0 min 80 W/m 4,2 km/h (1 Bft) 97,87 %
14.07.2017 14:40 20,0 C 17,2 C 15,6 C 73 % 15 lf 1015,2 hPa 0,0 l/m 0 min 2 min 71 W/m 8,4 km/h (2 Bft) 100,00 %
14.07.2017 14:42 19,9 C 17,2 C 15,6 C 74 % 15 lf 1015,3 hPa 0,2 l/m 0 min 2 min 69 W/m 10,5 km/h (2 Bft) 95,74 %
14.07.2017 14:44 19,8 C 16,7 C 15,6 C 74 % 15 lf 1015,3 hPa 0,0 l/m 0 min 2 min 61 W/m 18,8 km/h (3 Bft) 97,87 %
14.07.2017 14:46 19,7 C 16,1 C 15,0 C 75 % 15 lf 1015,4 hPa 0,0 l/m 0 min 2 min 60 W/m 20,9 km/h (4 Bft) 97,87 %
14.07.2017 14:48 19,6 C 16,1 C 15,0 C 76 % 15 lf 1015,5 hPa 0,2 l/m 0 min 2 min 65 W/m 23,0 km/h (4 Bft) 95,74 %
14.07.2017 14:50 19,3 C 15,6 C 14,4 C 76 % 15 lf 1015,5 hPa 0,0 l/m 0 min 2 min 73 W/m 29,3 km/h (5 Bft) 89,66 %
14.07.2017 14:52 19,2 C 15,6 C 15,0 C 77 % 15 lf 1015,5 hPa 0,0 l/m 0 min 2 min 77 W/m 18,8 km/h (3 Bft) 97,14 %
14.07.2017 14:54 19,0 C 15,6 C 15,0 C 77 % 15 lf 1015,5 hPa 0,0 l/m 0 min 2 min 70 W/m 16,7 km/h (3 Bft) 95,74 %
14.07.2017 14:56 18,9 C 15,6 C 15,0 C 78 % 15 lf 1015,5 hPa 0,0 l/m 0 min 2 min 60 W/m 6,3 km/h (2 Bft) 91,49 %
14.07.2017 14:58 18,7 C 15,6 C 15,0 C 79 % 15 lf 1015,5 hPa 0,0 l/m 0 min 2 min 51 W/m 14,6 km/h (3 Bft) 93,62 %
14.07.2017 15:00 18,6 C 15,6 C 15,0 C 79 % 15 lf 1015,6 hPa 0,0 l/m 0 min 2 min 49 W/m 12,6 km/h (3 Bft) 93,48 %
14.07.2017 15:02 18,5 C 15,6 C 14,4 C 79 % 15 lf 1015,5 hPa 0,2 l/m 0 min 2 min 57 W/m 14,6 km/h (3 Bft) 93,62 %
14.07.2017 15:04 18,4 C 15,6 C 15,0 C 80 % 15 lf 1015,5 hPa 0,0 l/m 0 min 2 min 67 W/m 8,4 km/h (2 Bft) 91,49 %
14.07.2017 15:06 18,3 C 15,6 C 15,0 C 80 % 15 lf 1015,5 hPa 0,0 l/m 0 min 2 min 76 W/m 6,3 km/h (2 Bft) 91,49 %
14.07.2017 15:08 18,2 C 15,6 C 15,0 C 81 % 15 lf 1015,5 hPa 0,0 l/m 0 min 2 min 83 W/m 6,3 km/h (2 Bft) 93,62 %
14.07.2017 15:10 18,1 C 15,6 C 15,0 C 82 % 15 lf 1015,4 hPa 0,0 l/m 0 min 2 min 89 W/m 0,0 km/h (0 Bft) 91,49 %
14.07.2017 15:12 17,9 C 15,6 C 15,0 C 82 % 15 lf 1015,3 hPa 0,0 l/m 0 min 2 min 91 W/m 0,0 km/h (0 Bft) 91,30 %
14.07.2017 15:14 17,9 C 15,6 C 15,0 C 82 % 15 lf 1015,3 hPa 0,0 l/m 0 min 2 min 96 W/m 0,0 km/h (0 Bft) 93,62 %
14.07.2017 15:16 17,8 C 16,1 C 15,0 C 83 % 15 lf 1015,3 hPa 0,0 l/m 0 min 2 min 112 W/m 2,1 km/h (1 Bft) 95,74 %
14.07.2017 15:18 17,8 C 16,1 C 15,0 C 83 % 15 lf 1015,3 hPa 0,0 l/m 0 min 2 min 120 W/m 2,1 km/h (1 Bft) 93,62 %
14.07.2017 15:20 17,7 C 16,1 C 15,6 C 83 % 15 lf 1015,3 hPa 0,0 l/m 0 min 0 min 121 W/m 2,1 km/h (1 Bft) 91,38 %
14.07.2017 15:22 17,7 C 16,7 C 15,6 C 84 % 15 lf 1015,3 hPa 0,0 l/m 0 min 0 min 124 W/m 6,3 km/h (2 Bft) 97,22 %
14.07.2017 15:24 17,7 C 16,7 C 15,6 C 84 % 15 lf 1015,3 hPa 0,0 l/m 0 min 0 min 128 W/m 8,4 km/h (2 Bft) 93,48 %
14.07.2017 15:26 17,7 C 16,7 C 15,6 C 85 % 15 lf 1015,4 hPa 0,0 l/m 0 min 0 min 132 W/m 6,3 km/h (2 Bft) 91,49 %
14.07.2017 15:28 17,7 C 16,7 C 16,1 C 85 % 15 lf 1015,3 hPa 0,0 l/m 0 min 0 min 135 W/m 4,2 km/h (1 Bft) 93,62 %
14.07.2017 15:30 17,7 C 16,7 C 16,1 C 85 % 15 lf 1015,3 hPa 0,0 l/m 0 min 0 min 136 W/m 8,4 km/h (2 Bft) 93,62 %
14.07.2017 15:32 17,7 C 16,7 C 16,1 C 86 % 15 lf 1015,4 hPa 0,0 l/m 0 min 0 min 129 W/m 6,3 km/h (2 Bft) 91,49 %
14.07.2017 15:34 17,7 C 17,2 C 16,1 C 86 % 15 lf 1015,3 hPa 0,0 l/m 0 min 0 min 117 W/m 8,4 km/h (2 Bft) 97,87 %
14.07.2017 15:36 17,7 C 16,7 C 16,1 C 86 % 15 lf 1015,4 hPa 0,0 l/m 0 min 0 min 110 W/m 4,2 km/h (1 Bft) 95,65 %
14.07.2017 15:38 17,7 C 16,7 C 16,1 C 87 % 15 lf 1015,4 hPa 0,0 l/m 0 min 2 min 113 W/m 4,2 km/h (1 Bft) 97,87 %
14.07.2017 15:40 17,7 C 17,2 C 16,1 C 87 % 15 lf 1015,4 hPa 0,0 l/m 0 min 2 min 114 W/m 4,2 km/h (1 Bft) 95,74 %
14.07.2017 15:42 17,7 C 17,2 C 16,1 C 87 % 15 lf 1015,4 hPa 0,0 l/m 0 min 2 min 113 W/m 4,2 km/h (1 Bft) 93,62 %
14.07.2017 15:44 17,7 C 17,2 C 16,1 C 88 % 15 lf 1015,4 hPa 0,0 l/m 0 min 2 min 105 W/m 10,5 km/h (2 Bft) 95,74 %
14.07.2017 15:46 17,7 C 16,7 C 16,1 C 88 % 15 lf 1015,5 hPa 0,0 l/m 0 min 0 min 96 W/m 6,3 km/h (2 Bft) 97,87 %
14.07.2017 15:48 17,7 C 17,2 C 16,1 C 88 % 15 lf 1015,5 hPa 0,0 l/m 0 min 0 min 85 W/m 4,2 km/h (1 Bft) 97,83 %
14.07.2017 15:50 17,7 C 16,7 C 16,1 C 88 % 15 lf 1015,6 hPa 0,0 l/m 0 min 0 min 77 W/m 8,4 km/h (2 Bft) 96,61 %
14.07.2017 15:52 17,7 C 16,7 C 16,1 C 88 % 15 lf 1015,5 hPa 0,0 l/m 0 min 0 min 78 W/m 6,3 km/h (2 Bft) 97,14 %
14.07.2017 15:54 17,7 C 16,1 C 15,6 C 88 % 15 lf 1015,6 hPa 0,0 l/m 0 min 2 min 82 W/m 14,6 km/h (3 Bft) 100,00 %
14.07.2017 15:56 17,6 C 16,1 C 15,0 C 87 % 15 lf 1015,6 hPa 0,0 l/m 0 min 2 min 82 W/m 39,7 km/h (6 Bft) 95,74 %
14.07.2017 15:58 17,5 C 16,1 C 15,0 C 87 % 15 lf 1015,5 hPa 0,2 l/m 0 min 2 min 84 W/m 20,9 km/h (4 Bft) 97,83 %
14.07.2017 16:00 17,4 C 15,6 C 15,0 C 87 % 15 lf 1015,6 hPa 0,0 l/m 0 min 2 min 96 W/m 16,7 km/h (3 Bft) 97,87 %
14.07.2017 16:02 17,4 C 15,6 C 15,6 C 87 % 15 lf 1015,6 hPa 0,0 l/m 0 min 2 min 117 W/m 14,6 km/h (3 Bft) 100,00 %
14.07.2017 16:04 17,4 C 15,6 C 15,6 C 87 % 15 lf 1015,6 hPa 0,0 l/m 0 min 2 min 134 W/m 18,8 km/h (3 Bft) 97,87 %
14.07.2017 16:06 17,3 C 15,6 C 15,0 C 87 % 15 lf 1015,6 hPa 0,2 l/m 0 min 2 min 150 W/m 16,7 km/h (3 Bft) 100,00 %
14.07.2017 16:08 17,3 C 16,1 C 15,6 C 88 % 15 lf 1015,6 hPa 0,0 l/m 0 min 2 min 172 W/m 14,6 km/h (3 Bft) 100,00 %
14.07.2017 16:10 17,3 C 16,7 C 15,6 C 88 % 15 lf 1015,5 hPa 0,0 l/m 0 min 0 min 188 W/m 10,5 km/h (2 Bft) 97,83 %
14.07.2017 16:12 17,3 C 16,7 C 16,1 C 88 % 15 lf 1015,6 hPa 0,0 l/m 0 min 2 min 195 W/m 10,5 km/h (2 Bft) 100,00 %
14.07.2017 16:14 17,3 C 16,7 C 16,1 C 88 % 15 lf 1015,6 hPa 0,0 l/m 0 min 0 min 194 W/m 8,4 km/h (2 Bft) 97,87 %
14.07.2017 16:16 17,3 C 17,2 C 16,1 C 89 % 15 lf 1015,6 hPa 0,0 l/m 0 min 0 min 183 W/m 12,6 km/h (3 Bft) 100,00 %
14.07.2017 16:18 17,3 C 16,7 C 16,1 C 89 % 15 lf 1015,6 hPa 0,0 l/m 0 min 0 min 173 W/m 10,5 km/h (2 Bft) 100,00 %
14.07.2017 16:20 17,3 C 16,7 C 16,1 C 89 % 15 lf 1015,7 hPa 0,0 l/m 0 min 0 min 174 W/m 8,4 km/h (2 Bft) 100,00 %
14.07.2017 16:22 17,3 C 17,2 C 16,1 C 89 % 15 lf 1015,7 hPa 0,0 l/m 0 min 0 min 180 W/m 12,6 km/h (3 Bft) 97,14 %
14.07.2017 16:24 17,3 C 17,2 C 16,1 C 89 % 15 lf 1015,7 hPa 0,0 l/m 0 min 0 min 195 W/m 14,6 km/h (3 Bft) 100,00 %
14.07.2017 16:26 17,3 C 17,2 C 16,1 C 89 % 15 lf 1015,8 hPa 0,0 l/m 0 min 0 min 212 W/m 10,5 km/h (2 Bft) 97,87 %
14.07.2017 16:28 17,2 C 17,2 C 16,1 C 89 % 15 lf 1015,7 hPa 0,0 l/m 0 min 0 min 188 W/m 18,8 km/h (3 Bft) 97,87 %
14.07.2017 16:30 17,2 C 17,2 C 15,6 C 88 % 15 lf 1015,8 hPa 0,0 l/m 0 min 0 min 154 W/m 14,6 km/h (3 Bft) 100,00 %
14.07.2017 16:32 17,2 C 16,7 C 15,6 C 88 % 15 lf 1015,8 hPa 0,0 l/m 0 min 0 min 131 W/m 8,4 km/h (2 Bft) 100,00 %
14.07.2017 16:34 17,2 C 16,7 C 15,6 C 88 % 15 lf 1015,9 hPa 0,0 l/m 0 min 0 min 116 W/m 14,6 km/h (3 Bft) 100,00 %
14.07.2017 16:36 17,2 C 16,7 C 15,6 C 87 % 15 lf 1015,8 hPa 0,0 l/m 0 min 0 min 111 W/m 14,6 km/h (3 Bft) 97,87 %
14.07.2017 16:38 17,2 C 16,7 C 15,0 C 87 % 15 lf 1015,8 hPa 0,0 l/m 0 min 0 min 103 W/m 14,6 km/h (3 Bft) 95,74 %
14.07.2017 16:40 17,2 C 16,7 C 15,0 C 87 % 15 lf 1015,9 hPa 0,0 l/m 0 min 0 min 96 W/m 12,6 km/h (3 Bft) 97,87 %
14.07.2017 16:42 17,2 C 16,7 C 15,0 C 87 % 15 lf 1015,8 hPa 0,0 l/m 0 min 0 min 94 W/m 10,5 km/h (2 Bft) 97,87 %
14.07.2017 16:44 17,2 C 16,7 C 15,6 C 87 % 15 lf 1015,8 hPa 0,0 l/m 0 min 0 min 101 W/m 12,6 km/h (3 Bft) 95,74 %
14.07.2017 16:46 17,2 C 16,7 C 15,0 C 87 % 15 lf 1015,8 hPa 0,0 l/m 0 min 2 min 105 W/m 18,8 km/h (3 Bft) 97,83 %
14.07.2017 16:48 17,2 C 16,7 C 15,0 C 87 % 15 lf 1015,9 hPa 0,0 l/m 0 min 2 min 92 W/m 12,6 km/h (3 Bft) 95,74 %
14.07.2017 16:50 17,2 C 16,7 C 15,0 C 87 % 15 lf 1015,9 hPa 0,0 l/m 0 min 2 min 78 W/m 18,8 km/h (3 Bft) 96,61 %
14.07.2017 16:52 17,2 C 16,7 C 15,0 C 87 % 15 lf 1015,9 hPa 0,0 l/m 0 min 2 min 65 W/m 16,7 km/h (3 Bft) 97,14 %
14.07.2017 16:54 17,2 C 16,1 C 15,0 C 87 % 15 lf 1016,0 hPa 0,0 l/m 0 min 2 min 62 W/m 12,6 km/h (3 Bft) 91,49 %
14.07.2017 16:56 17,1 C 16,1 C 15,0 C 87 % 15 lf 1016,0 hPa 0,0 l/m 0 min 2 min 62 W/m 12,6 km/h (3 Bft) 95,74 %
14.07.2017 16:58 17,1 C 16,1 C 14,4 C 87 % 15 lf 1016,0 hPa 0,0 l/m 0 min 2 min 57 W/m 16,7 km/h (3 Bft) 95,65 %
14.07.2017 17:00 17,1 C 15,6 C 14,4 C 88 % 15 lf 1016,0 hPa 0,2 l/m 0 min 2 min 51 W/m 14,6 km/h (3 Bft) 95,74 %
14.07.2017 17:02 17,1 C 15,6 C 14,4 C 88 % 15 lf 1016,0 hPa 0,2 l/m 0 min 2 min 47 W/m 20,9 km/h (4 Bft) 93,62 %
14.07.2017 17:04 17,0 C 15,6 C 14,4 C 88 % 15 lf 1016,1 hPa 0,2 l/m 0 min 2 min 56 W/m 16,7 km/h (3 Bft) 95,74 %
14.07.2017 17:06 17,0 C 15,6 C 14,4 C 89 % 15 lf 1015,9 hPa 0,2 l/m 0 min 2 min 73 W/m 12,6 km/h (3 Bft) 91,49 %
14.07.2017 17:08 16,9 C 15,6 C 15,0 C 89 % 15 lf 1015,9 hPa 0,0 l/m 0 min 2 min 92 W/m 14,6 km/h (3 Bft) 93,62 %
14.07.2017 17:10 16,9 C 15,6 C 15,0 C 89 % 15 lf 1015,9 hPa 0,0 l/m 0 min 2 min 112 W/m 18,8 km/h (3 Bft) 93,48 %
14.07.2017 17:12 16,9 C 15,6 C 15,0 C 89 % 15 lf 1016,0 hPa 0,4 l/m 0 min 2 min 126 W/m 12,6 km/h (3 Bft) 93,62 %
14.07.2017 17:14 16,8 C 15,6 C 15,0 C 90 % 15 lf 1016,0 hPa 0,0 l/m 0 min 2 min 148 W/m 14,6 km/h (3 Bft) 93,62 %
14.07.2017 17:16 16,8 C 15,6 C 15,6 C 90 % 15 lf 1016,0 hPa 0,2 l/m 0 min 2 min 157 W/m 12,6 km/h (3 Bft) 93,62 %
14.07.2017 17:18 16,8 C 16,1 C 15,6 C 91 % 15 lf 1016,1 hPa 0,0 l/m 0 min 2 min 130 W/m 12,6 km/h (3 Bft) 93,62 %
14.07.2017 17:20 16,8 C 16,1 C 15,6 C 91 % 15 lf 1016,0 hPa 0,2 l/m 0 min 0 min 93 W/m 10,5 km/h (2 Bft) 96,55 %
14.07.2017 17:22 16,8 C 15,6 C 15,0 C 91 % 15 lf 1016,0 hPa 0,0 l/m 0 min 0 min 72 W/m 14,6 km/h (3 Bft) 97,14 %
14.07.2017 17:24 16,8 C 15,6 C 15,0 C 91 % 15 lf 1016,1 hPa 0,0 l/m 0 min 2 min 59 W/m 14,6 km/h (3 Bft) 93,62 %
14.07.2017 17:26 16,8 C 15,6 C 15,0 C 91 % 15 lf 1016,2 hPa 0,0 l/m 0 min 0 min 43 W/m 14,6 km/h (3 Bft) 95,74 %
14.07.2017 17:28 16,7 C 15,6 C 15,0 C 92 % 15 lf 1016,3 hPa 0,0 l/m 0 min 0 min 32 W/m 14,6 km/h (3 Bft) 93,62 %
14.07.2017 17:30 16,7 C 15,6 C 15,0 C 92 % 15 lf 1016,2 hPa 0,0 l/m 0 min 0 min 45 W/m 12,6 km/h (3 Bft) 95,74 %
14.07.2017 17:32 16,7 C 15,6 C 15,0 C 92 % 15 lf 1016,2 hPa 0,0 l/m 0 min 0 min 56 W/m 14,6 km/h (3 Bft) 95,65 %
14.07.2017 17:34 16,7 C 15,6 C 15,0 C 92 % 15 lf 1016,2 hPa 0,0 l/m 0 min 0 min 77 W/m 18,8 km/h (3 Bft) 97,87 %
14.07.2017 17:36 16,6 C 15,6 C 15,0 C 92 % 15 lf 1016,2 hPa 0,0 l/m 0 min 2 min 97 W/m 12,6 km/h (3 Bft) 95,74 %
14.07.2017 17:38 16,6 C 15,6 C 15,0 C 92 % 15 lf 1016,2 hPa 0,0 l/m 0 min 2 min 101 W/m 12,6 km/h (3 Bft) 97,87 %
14.07.2017 17:40 16,6 C 15,6 C 15,0 C 92 % 15 lf 1016,2 hPa 0,0 l/m 0 min 2 min 93 W/m 14,6 km/h (3 Bft) 97,87 %
14.07.2017 17:42 16,5 C 15,6 C 15,0 C 92 % 15 lf 1016,2 hPa 0,0 l/m 0 min 2 min 80 W/m 10,5 km/h (2 Bft) 93,62 %
14.07.2017 17:44 16,5 C 15,6 C 15,0 C 92 % 15 lf 1016,1 hPa 0,0 l/m 0 min 2 min 68 W/m 10,5 km/h (2 Bft) 95,65 %
14.07.2017 17:46 16,4 C 15,6 C 15,0 C 92 % 15 lf 1016,1 hPa 0,0 l/m 0 min 0 min 62 W/m 10,5 km/h (2 Bft) 95,74 %
14.07.2017 17:48 16,4 C 15,6 C 15,0 C 92 % 15 lf 1016,1 hPa 0,0 l/m 0 min 0 min 62 W/m 10,5 km/h (2 Bft) 95,74 %
14.07.2017 17:50 16,4 C 15,6 C 15,0 C 92 % 15 lf 1016,2 hPa 0,0 l/m 0 min 0 min 66 W/m 6,3 km/h (2 Bft) 96,61 %
14.07.2017 17:52 16,4 C 15,6 C 15,0 C 92 % 15 lf 1016,2 hPa 0,0 l/m 0 min 0 min 63 W/m 4,2 km/h (1 Bft) 94,29 %
14.07.2017 17:54 16,4 C 15,6 C 15,0 C 92 % 15 lf 1016,2 hPa 0,0 l/m 0 min 0 min 55 W/m 8,4 km/h (2 Bft) 95,74 %
14.07.2017 17:56 16,3 C 15,6 C 15,0 C 92 % 15 lf 1016,2 hPa 0,0 l/m 0 min 0 min 63 W/m 10,5 km/h (2 Bft) 97,83 %
14.07.2017 17:58 16,3 C 15,6 C 15,0 C 93 % 15 lf 1016,2 hPa 0,0 l/m 0 min 0 min 64 W/m 10,5 km/h (2 Bft) 97,87 %
14.07.2017 18:00 16,3 C 15,6 C 15,0 C 93 % 15 lf 1016,3 hPa 0,0 l/m 0 min 0 min 57 W/m 12,6 km/h (3 Bft) 93,62 %
14.07.2017 18:02 16,3 C 15,0 C 15,0 C 93 % 15 lf 1016,3 hPa 0,0 l/m 0 min 0 min 48 W/m 8,4 km/h (2 Bft) 97,87 %
14.07.2017 18:04 16,2 C 15,6 C 15,0 C 93 % 15 lf 1016,3 hPa 0,0 l/m 0 min 0 min 57 W/m 10,5 km/h (2 Bft) 97,87 %
14.07.2017 18:06 16,2 C 15,6 C 15,0 C 93 % 15 lf 1016,3 hPa 0,0 l/m 0 min 0 min 81 W/m 10,5 km/h (2 Bft) 97,87 %
14.07.2017 18:10 16,2 C 15,0 C 15,0 C 93 % 15 lf 1016,3 hPa 0,0 l/m 0 min 0 min 65 W/m 8,4 km/h (2 Bft) 96,77 %
14.07.2017 18:12 16,2 C 15,6 C 15,0 C 93 % 15 lf 1016,3 hPa 0,0 l/m 0 min 0 min 57 W/m 6,3 km/h (2 Bft) 95,74 %
14.07.2017 18:14 16,2 C 15,6 C 15,0 C 93 % 15 lf 1016,4 hPa 0,0 l/m 0 min 0 min 87 W/m 6,3 km/h (2 Bft) 97,87 %
14.07.2017 18:16 16,2 C 15,6 C 15,6 C 93 % 15 lf 1016,3 hPa 0,0 l/m 0 min 0 min 138 W/m 6,3 km/h (2 Bft) 97,87 %
14.07.2017 18:18 16,2 C 16,1 C 15,6 C 93 % 15 lf 1016,3 hPa 0,0 l/m 0 min 0 min 166 W/m 6,3 km/h (2 Bft) 100,00 %
14.07.2017 18:20 16,2 C 16,1 C 15,6 C 93 % 15 lf 1016,3 hPa 0,0 l/m 0 min 0 min 209 W/m 12,6 km/h (3 Bft) 100,00 %
14.07.2017 18:22 16,2 C 16,7 C 16,1 C 93 % 15 lf 1016,3 hPa 0,0 l/m 2 min 0 min 295 W/m 10,5 km/h (2 Bft) 97,87 %
14.07.2017 18:24 16,3 C 16,7 C 16,7 C 94 % 15 lf 1016,4 hPa 0,0 l/m 2 min 0 min 280 W/m 6,3 km/h (2 Bft) 100,00 %
14.07.2017 18:26 16,3 C 16,7 C 16,7 C 94 % 15 lf 1016,4 hPa 0,0 l/m 2 min 0 min 227 W/m 10,5 km/h (2 Bft) 97,87 %
14.07.2017 18:28 16,4 C 16,7 C 16,7 C 94 % 15 lf 1016,4 hPa 0,0 l/m 0 min 0 min 191 W/m 12,6 km/h (3 Bft) 97,87 %
14.07.2017 18:30 16,4 C 16,7 C 16,7 C 94 % 15 lf 1016,4 hPa 0,0 l/m 0 min 0 min 166 W/m 8,4 km/h (2 Bft) 100,00 %
14.07.2017 18:32 16,4 C 16,7 C 16,7 C 94 % 15 lf 1016,4 hPa 0,0 l/m 0 min 0 min 139 W/m 6,3 km/h (2 Bft) 97,83 %
14.07.2017 18:34 16,4 C 16,7 C 16,1 C 94 % 15 lf 1016,4 hPa 0,0 l/m 0 min 0 min 130 W/m 12,6 km/h (3 Bft) 97,87 %
14.07.2017 18:36 16,4 C 16,1 C 16,1 C 94 % 15 lf 1016,4 hPa 0,0 l/m 0 min 0 min 149 W/m 14,6 km/h (3 Bft) 97,87 %
14.07.2017 18:38 16,4 C 16,1 C 16,1 C 94 % 15 lf 1016,4 hPa 0,0 l/m 0 min 0 min 177 W/m 10,5 km/h (2 Bft) 95,74 %
14.07.2017 18:40 16,4 C 16,7 C 16,7 C 94 % 15 lf 1016,4 hPa 0,0 l/m 0 min 0 min 196 W/m 10,5 km/h (2 Bft) 97,87 %
14.07.2017 18:42 16,4 C 16,7 C 16,7 C 94 % 14 lf 1016,4 hPa 0,0 l/m 0 min 0 min 197 W/m 10,5 km/h (2 Bft) 95,74 %
14.07.2017 18:44 16,5 C 16,7 C 16,7 C 94 % 14 lf 1016,4 hPa 0,0 l/m 2 min 0 min 212 W/m 10,5 km/h (2 Bft) 97,83 %
14.07.2017 18:46 16,5 C 17,2 C 17,2 C 94 % 14 lf 1016,4 hPa 0,0 l/m 2 min 0 min 247 W/m 8,4 km/h (2 Bft) 95,74 %
14.07.2017 18:48 16,6 C 17,2 C 17,2 C 94 % 13 lf 1016,4 hPa 0,0 l/m 2 min 0 min 276 W/m 16,7 km/h (3 Bft) 95,74 %
14.07.2017 18:50 16,7 C 17,2 C 17,2 C 94 % 12 lf 1016,4 hPa 0,0 l/m 2 min 0 min 319 W/m 12,6 km/h (3 Bft) 97,87 %
14.07.2017 18:52 16,7 C 17,2 C 16,7 C 94 % 11 lf 1016,4 hPa 0,0 l/m 2 min 0 min 230 W/m 12,6 km/h (3 Bft) 95,74 %
14.07.2017 18:54 16,7 C 16,7 C 16,7 C 94 % 8 lf 1016,4 hPa 0,0 l/m 0 min 0 min 182 W/m 16,7 km/h (3 Bft) 95,65 %
14.07.2017 18:56 16,7 C 17,2 C 16,7 C 94 % 8 lf 1016,4 hPa 0,0 l/m 0 min 0 min 168 W/m 10,5 km/h (2 Bft) 95,74 %
14.07.2017 18:58 16,7 C 17,2 C 16,7 C 93 % 5 lf 1016,4 hPa 0,0 l/m 2 min 0 min 279 W/m 14,6 km/h (3 Bft) 93,62 %
14.07.2017 19:00 16,7 C 17,2 C 16,7 C 93 % 4 lf 1016,4 hPa 0,0 l/m 2 min 0 min 417 W/m 12,6 km/h (3 Bft) 95,74 %
14.07.2017 19:02 16,8 C 17,2 C 16,7 C 93 % 3 lf 1016,4 hPa 0,0 l/m 2 min 0 min 219 W/m 12,6 km/h (3 Bft) 93,62 %
14.07.2017 19:04 16,8 C 16,7 C 16,7 C 93 % 3 lf 1016,4 hPa 0,0 l/m 0 min 0 min 150 W/m 18,8 km/h (3 Bft) 93,62 %
14.07.2017 19:06 16,8 C 16,7 C 16,1 C 93 % 2 lf 1016,4 hPa 0,0 l/m 0 min 0 min 104 W/m 20,9 km/h (4 Bft) 95,65 %
14.07.2017 19:08 16,8 C 16,7 C 16,1 C 93 % 1 lf 1016,4 hPa 0,0 l/m 0 min 0 min 105 W/m 16,7 km/h (3 Bft) 95,74 %
14.07.2017 19:10 16,8 C 16,7 C 16,1 C 92 % 1 lf 1016,5 hPa 0,0 l/m 0 min 0 min 96 W/m 8,4 km/h (2 Bft) 93,62 %
14.07.2017 19:12 16,8 C 16,7 C 16,1 C 92 % 1 lf 1016,5 hPa 0,0 l/m 0 min 0 min 89 W/m 10,5 km/h (2 Bft) 93,62 %
14.07.2017 19:14 16,8 C 16,7 C 16,1 C 92 % 1 lf 1016,5 hPa 0,0 l/m 0 min 0 min 75 W/m 12,6 km/h (3 Bft) 95,74 %
14.07.2017 19:16 16,8 C 16,7 C 15,6 C 92 % 0 lf 1016,5 hPa 0,0 l/m 0 min 0 min 44 W/m 14,6 km/h (3 Bft) 93,62 %
14.07.2017 19:18 16,8 C 16,1 C 15,6 C 92 % 0 lf 1016,5 hPa 0,0 l/m 0 min 0 min 33 W/m 16,7 km/h (3 Bft) 95,65 %
14.07.2017 19:20 16,8 C 16,1 C 15,6 C 91 % 0 lf 1016,6 hPa 0,0 l/m 0 min 0 min 47 W/m 14,6 km/h (3 Bft) 97,87 %
14.07.2017 19:22 16,8 C 16,7 C 15,6 C 91 % 0 lf 1016,6 hPa 0,0 l/m 0 min 0 min 74 W/m 16,7 km/h (3 Bft) 95,74 %
14.07.2017 19:24 16,8 C 16,7 C 15,6 C 91 % 0 lf 1016,7 hPa 0,0 l/m 0 min 0 min 97 W/m 14,6 km/h (3 Bft) 97,87 %
14.07.2017 19:26 16,8 C 17,2 C 15,6 C 91 % 0 lf 1016,7 hPa 0,0 l/m 0 min 0 min 95 W/m 12,6 km/h (3 Bft) 97,87 %
14.07.2017 19:28 16,8 C 17,2 C 15,6 C 91 % 0 lf 1016,6 hPa 0,0 l/m 0 min 0 min 86 W/m 12,6 km/h (3 Bft) 97,87 %
14.07.2017 19:30 16,8 C 17,2 C 15,6 C 91 % 0 lf 1016,6 hPa 0,0 l/m 0 min 0 min 78 W/m 18,8 km/h (3 Bft) 95,65 %
14.07.2017 19:33 16,7 C 17,2 C 15,6 C 90 % 0 lf 1016,6 hPa 0,0 l/m 0 min 0 min 86 W/m 18,8 km/h (3 Bft) 95,77 %
14.07.2017 19:34 16,7 C 17,2 C 15,0 C 89 % 0 lf 1016,6 hPa 0,0 l/m 0 min 0 min 103 W/m 14,6 km/h (3 Bft) 95,65 %
14.07.2017 19:36 16,6 C 17,2 C 15,6 C 89 % 0 lf 1016,6 hPa 0,0 l/m 2 min 0 min 169 W/m 14,6 km/h (3 Bft) 97,87 %
14.07.2017 19:38 16,6 C 17,2 C 15,6 C 88 % 0 lf 1016,6 hPa 0,0 l/m 2 min 0 min 175 W/m 23,0 km/h (4 Bft) 93,62 %
14.07.2017 19:40 16,5 C 17,8 C 15,6 C 87 % 0 lf 1016,7 hPa 0,0 l/m 2 min 0 min 266 W/m 14,6 km/h (3 Bft) 97,87 %
14.07.2017 19:42 16,5 C 17,8 C 15,6 C 86 % 0 lf 1016,7 hPa 0,0 l/m 2 min 0 min 316 W/m 14,6 km/h (3 Bft) 93,48 %
14.07.2017 19:44 16,6 C 17,8 C 16,1 C 86 % 0 lf 1016,7 hPa 0,0 l/m 2 min 0 min 289 W/m 16,7 km/h (3 Bft) 97,87 %
14.07.2017 19:46 16,6 C 17,8 C 15,6 C 86 % 0 lf 1016,7 hPa 0,0 l/m 2 min 0 min 259 W/m 16,7 km/h (3 Bft) 95,74 %
14.07.2017 19:48 16,6 C 17,2 C 15,6 C 85 % 0 lf 1016,7 hPa 0,0 l/m 2 min 0 min 238 W/m 16,7 km/h (3 Bft) 91,49 %
14.07.2017 19:50 16,6 C 17,2 C 15,0 C 84 % 0 lf 1016,7 hPa 0,0 l/m 2 min 0 min 198 W/m 14,6 km/h (3 Bft) 95,74 %
14.07.2017 19:52 16,6 C 17,2 C 15,0 C 84 % 0 lf 1016,7 hPa 0,0 l/m 2 min 0 min 200 W/m 14,6 km/h (3 Bft) 97,83 %
14.07.2017 19:54 16,6 C 17,2 C 15,0 C 83 % 0 lf 1016,8 hPa 0,0 l/m 2 min 0 min 201 W/m 10,5 km/h (2 Bft) 95,74 %
14.07.2017 19:56 16,7 C 17,2 C 14,4 C 83 % 0 lf 1016,7 hPa 0,0 l/m 2 min 0 min 161 W/m 20,9 km/h (4 Bft) 91,49 %
14.07.2017 19:58 16,7 C 16,7 C 14,4 C 82 % 0 lf 1016,7 hPa 0,0 l/m 2 min 0 min 167 W/m 16,7 km/h (3 Bft) 97,87 %
14.07.2017 20:00 16,7 C 16,7 C 14,4 C 82 % 0 lf 1016,7 hPa 0,0 l/m 0 min 0 min 89 W/m 14,6 km/h (3 Bft) 95,74 %
14.07.2017 20:02 16,7 C 16,7 C 14,4 C 82 % 0 lf 1016,8 hPa 0,0 l/m 0 min 0 min 45 W/m 14,6 km/h (3 Bft) 97,87 %
14.07.2017 20:04 16,7 C 16,1 C 14,4 C 81 % 0 lf 1016,8 hPa 0,0 l/m 0 min 0 min 46 W/m 10,5 km/h (2 Bft) 84,78 %
14.07.2017 20:06 16,7 C 16,1 C 13,9 C 81 % 0 lf 1016,9 hPa 0,0 l/m 0 min 0 min 51 W/m 12,6 km/h (3 Bft) 93,62 %
14.07.2017 20:08 16,7 C 16,1 C 13,9 C 82 % 0 lf 1016,9 hPa 0,0 l/m 0 min 0 min 56 W/m 10,5 km/h (2 Bft) 97,87 %
14.07.2017 20:10 16,7 C 16,1 C 14,4 C 82 % 0 lf 1016,9 hPa 0,0 l/m 0 min 0 min 59 W/m 8,4 km/h (2 Bft) 95,74 %
14.07.2017 20:12 16,6 C 16,1 C 14,4 C 82 % 0 lf 1016,9 hPa 0,0 l/m 0 min 0 min 68 W/m 14,6 km/h (3 Bft) 95,74 %
14.07.2017 20:14 16,6 C 16,1 C 14,4 C 82 % 0 lf 1016,9 hPa 0,0 l/m 0 min 0 min 74 W/m 8,4 km/h (2 Bft) 95,74 %
14.07.2017 20:16 16,6 C 16,1 C 15,0 C 82 % 0 lf 1016,9 hPa 0,0 l/m 2 min 0 min 100 W/m 12,6 km/h (3 Bft) 97,83 %
14.07.2017 20:18 16,6 C 16,7 C 15,0 C 81 % 0 lf 1016,9 hPa 0,0 l/m 2 min 0 min 100 W/m 12,6 km/h (3 Bft) 95,74 %
14.07.2017 20:20 16,6 C 16,7 C 15,0 C 81 % 0 lf 1017,0 hPa 0,0 l/m 2 min 0 min 104 W/m 14,6 km/h (3 Bft) 95,74 %
14.07.2017 20:22 16,5 C 16,7 C 15,0 C 81 % 0 lf 1016,9 hPa 0,0 l/m 2 min 0 min 110 W/m 12,6 km/h (3 Bft) 93,62 %
14.07.2017 20:24 16,5 C 16,7 C 15,0 C 81 % 0 lf 1016,9 hPa 0,0 l/m 2 min 0 min 156 W/m 20,9 km/h (4 Bft) 97,87 %
14.07.2017 20:26 16,5 C 16,7 C 15,6 C 80 % 0 lf 1016,9 hPa 0,0 l/m 2 min 0 min 153 W/m 16,7 km/h (3 Bft) 97,87 %
14.07.2017 20:28 16,4 C 16,7 C 15,6 C 80 % 0 lf 1017,0 hPa 0,0 l/m 2 min 0 min 116 W/m 8,4 km/h (2 Bft) 93,48 %
14.07.2017 20:30 16,4 C 16,7 C 15,0 C 80 % 0 lf 1017,0 hPa 0,0 l/m 2 min 0 min 83 W/m 14,6 km/h (3 Bft) 97,87 %
14.07.2017 20:32 16,4 C 16,7 C 15,0 C 79 % 0 lf 1017,0 hPa 0,0 l/m 0 min 0 min 69 W/m 18,8 km/h (3 Bft) 93,62 %
14.07.2017 20:34 16,4 C 16,7 C 15,0 C 79 % 0 lf 1016,9 hPa 0,0 l/m 0 min 0 min 58 W/m 16,7 km/h (3 Bft) 97,87 %
14.07.2017 20:36 16,4 C 16,7 C 15,0 C 79 % 0 lf 1017,0 hPa 0,0 l/m 0 min 0 min 55 W/m 16,7 km/h (3 Bft) 95,74 %
14.07.2017 20:38 16,4 C 16,1 C 14,4 C 78 % 0 lf 1017,0 hPa 0,0 l/m 0 min 0 min 54 W/m 10,5 km/h (2 Bft) 97,87 %
14.07.2017 20:40 16,4 C 16,1 C 14,4 C 78 % 0 lf 1017,1 hPa 0,0 l/m 0 min 0 min 53 W/m 12,6 km/h (3 Bft) 97,83 %
14.07.2017 20:42 16,4 C 16,1 C 14,4 C 78 % 0 lf 1017,1 hPa 0,0 l/m 0 min 0 min 52 W/m 10,5 km/h (2 Bft) 95,74 %
14.07.2017 20:44 16,3 C 16,1 C 14,4 C 78 % 0 lf 1017,1 hPa 0,0 l/m 0 min 0 min 50 W/m 8,4 km/h (2 Bft) 95,74 %
14.07.2017 20:46 16,3 C 16,1 C 14,4 C 78 % 0 lf 1017,1 hPa 0,0 l/m 0 min 0 min 49 W/m 18,8 km/h (3 Bft) 97,87 %
14.07.2017 20:48 16,3 C 16,1 C 14,4 C 78 % 0 lf 1017,1 hPa 0,0 l/m 0 min 0 min 45 W/m 14,6 km/h (3 Bft) 93,62 %
14.07.2017 20:50 16,3 C 15,6 C 14,4 C 78 % 0 lf 1017,1 hPa 0,0 l/m 0 min 0 min 37 W/m 14,6 km/h (3 Bft) 95,74 %
14.07.2017 20:52 16,2 C 15,6 C 14,4 C 78 % 0 lf 1017,1 hPa 0,0 l/m 0 min 0 min 33 W/m 16,7 km/h (3 Bft) 95,65 %
14.07.2017 20:54 16,2 C 15,6 C 14,4 C 78 % 0 lf 1017,1 hPa 0,0 l/m 0 min 0 min 32 W/m 10,5 km/h (2 Bft) 95,74 %
14.07.2017 20:56 16,2 C 15,6 C 14,4 C 78 % 0 lf 1017,2 hPa 0,0 l/m 0 min 0 min 32 W/m 14,6 km/h (3 Bft) 95,74 %
14.07.2017 20:58 16,1 C 15,6 C 14,4 C 78 % 0 lf 1017,1 hPa 0,0 l/m 0 min 0 min 32 W/m 18,8 km/h (3 Bft) 93,62 %
14.07.2017 21:00 16,1 C 15,6 C 14,4 C 78 % 0 lf 1017,2 hPa 0,0 l/m 0 min 0 min 30 W/m 14,6 km/h (3 Bft) 95,74 %
14.07.2017 21:02 16,1 C 15,6 C 14,4 C 78 % 0 lf 1017,2 hPa 0,0 l/m 0 min 0 min 27 W/m 16,7 km/h (3 Bft) 97,87 %
14.07.2017 21:04 16,1 C 15,6 C 14,4 C 78 % 0 lf 1017,3 hPa 0,0 l/m 0 min 0 min 24 W/m 10,5 km/h (2 Bft) 95,65 %
14.07.2017 21:06 16,0 C 15,6 C 14,4 C 78 % 0 lf 1017,3 hPa 0,0 l/m 0 min 0 min 21 W/m 14,6 km/h (3 Bft) 95,74 %
14.07.2017 21:08 16,0 C 15,6 C 13,9 C 78 % 0 lf 1017,3 hPa 0,0 l/m 0 min 0 min 19 W/m 8,4 km/h (2 Bft) 95,74 %
14.07.2017 21:10 16,0 C 15,6 C 13,9 C 78 % 0 lf 1017,4 hPa 0,0 l/m 0 min 0 min 18 W/m 10,5 km/h (2 Bft) 97,87 %
14.07.2017 21:12 15,9 C 15,6 C 13,9 C 78 % 0 lf 1017,3 hPa 0,0 l/m 0 min 0 min 16 W/m 12,6 km/h (3 Bft) 95,74 %
14.07.2017 21:14 15,9 C 15,6 C 13,9 C 79 % 0 lf 1017,5 hPa 0,0 l/m 0 min 0 min 14 W/m 14,6 km/h (3 Bft) 97,83 %
14.07.2017 21:16 15,9 C 15,6 C 13,9 C 79 % 0 lf 1017,6 hPa 0,0 l/m 0 min 0 min 14 W/m 16,7 km/h (3 Bft) 95,74 %
14.07.2017 21:18 15,9 C 15,6 C 13,9 C 79 % 0 lf 1017,5 hPa 0,0 l/m 0 min 0 min 12 W/m 10,5 km/h (2 Bft) 97,87 %
14.07.2017 21:20 15,9 C 15,6 C 13,9 C 79 % 0 lf 1017,5 hPa 0,0 l/m 0 min 0 min 12 W/m 10,5 km/h (2 Bft) 97,87 %
14.07.2017 21:22 15,9 C 15,6 C 13,9 C 79 % 0 lf 1017,5 hPa 0,0 l/m 0 min 0 min 11 W/m 16,7 km/h (3 Bft) 100,00 %
14.07.2017 21:24 15,9 C 15,6 C 13,9 C 79 % 0 lf 1017,5 hPa 0,0 l/m 0 min 0 min 10 W/m 10,5 km/h (2 Bft) 100,00 %
14.07.2017 21:26 15,8 C 15,6 C 13,9 C 79 % 0 lf 1017,5 hPa 0,0 l/m 0 min 0 min 9 W/m 8,4 km/h (2 Bft) 97,83 %
14.07.2017 21:28 15,8 C 15,0 C 13,9 C 79 % 0 lf 1017,5 hPa 0,0 l/m 0 min 0 min 7 W/m 8,4 km/h (2 Bft) 95,74 %
14.07.2017 21:30 15,8 C 15,0 C 13,9 C 79 % 0 lf 1017,6 hPa 0,0 l/m 0 min 0 min 7 W/m 8,4 km/h (2 Bft) 100,00 %
14.07.2017 21:32 15,8 C 15,0 C 13,9 C 79 % 0 lf 1017,6 hPa 0,0 l/m 0 min 0 min 7 W/m 10,5 km/h (2 Bft) 100,00 %
14.07.2017 21:34 15,8 C 15,0 C 13,9 C 80 % 0 lf 1017,6 hPa 0,0 l/m 0 min 0 min 7 W/m 10,5 km/h (2 Bft) 100,00 %
14.07.2017 21:36 15,7 C 15,0 C 13,9 C 80 % 0 lf 1017,6 hPa 0,0 l/m 0 min 0 min 7 W/m 8,4 km/h (2 Bft) 100,00 %
14.07.2017 21:38 15,7 C 15,0 C 13,9 C 80 % 0 lf 1017,5 hPa 0,0 l/m 0 min 0 min 7 W/m 10,5 km/h (2 Bft) 100,00 %
14.07.2017 21:40 15,7 C 15,0 C 13,9 C 80 % 0 lf 1017,5 hPa 0,0 l/m 0 min 0 min 7 W/m 16,7 km/h (3 Bft) 93,62 %
14.07.2017 21:42 15,7 C 15,0 C 13,9 C 79 % 0 lf 1017,6 hPa 0,0 l/m 0 min 0 min 5 W/m 8,4 km/h (2 Bft) 100,00 %
14.07.2017 21:44 15,7 C 15,0 C 13,9 C 79 % 0 lf 1017,6 hPa 0,0 l/m 0 min 0 min 5 W/m 14,6 km/h (3 Bft) 97,87 %
14.07.2017 21:46 15,6 C 15,0 C 13,9 C 80 % 0 lf 1017,7 hPa 0,0 l/m 0 min 0 min 5 W/m 8,4 km/h (2 Bft) 95,74 %
14.07.2017 21:48 15,6 C 15,0 C 13,3 C 80 % 0 lf 1017,7 hPa 0,0 l/m 0 min 0 min 1 W/m 12,6 km/h (3 Bft) 100,00 %
14.07.2017 21:50 15,6 C 15,0 C 13,3 C 80 % 0 lf 1017,7 hPa 0,0 l/m 0 min 0 min 0 W/m 12,6 km/h (3 Bft) 100,00 %
14.07.2017 21:52 15,6 C 15,0 C 13,3 C 80 % 0 lf 1017,7 hPa 0,0 l/m 0 min 0 min 0 W/m 8,4 km/h (2 Bft) 100,00 %
14.07.2017 21:54 15,5 C 15,0 C 13,3 C 80 % 0 lf 1017,7 hPa 0,0 l/m 0 min 0 min 0 W/m 14,6 km/h (3 Bft) 100,00 %
14.07.2017 21:56 15,5 C 15,0 C 13,3 C 80 % 0 lf 1017,8 hPa 0,0 l/m 0 min 0 min 0 W/m 14,6 km/h (3 Bft) 100,00 %
14.07.2017 21:58 15,5 C 14,4 C 13,3 C 80 % 0 lf 1017,8 hPa 0,0 l/m 0 min 0 min 0 W/m 12,6 km/h (3 Bft) 97,87 %
14.07.2017 22:00 15,4 C 14,4 C 13,3 C 80 % 0 lf 1017,8 hPa 0,0 l/m 0 min 0 min 0 W/m 14,6 km/h (3 Bft) 97,87 %
14.07.2017 22:02 15,4 C 14,4 C 13,3 C 80 % 0 lf 1017,8 hPa 0,0 l/m 0 min 0 min 0 W/m 14,6 km/h (3 Bft) 95,65 %
14.07.2017 22:04 15,4 C 14,4 C 13,3 C 80 % 0 lf 1017,8 hPa 0,0 l/m 0 min 0 min 0 W/m 14,6 km/h (3 Bft) 95,74 %
14.07.2017 22:06 15,4 C 14,4 C 13,3 C 80 % 0 lf 1017,9 hPa 0,0 l/m 0 min 0 min 0 W/m 10,5 km/h (2 Bft) 97,87 %
14.07.2017 22:08 15,3 C 14,4 C 13,3 C 80 % 0 lf 1017,8 hPa 0,0 l/m 0 min 0 min 0 W/m 14,6 km/h (3 Bft) 100,00 %
14.07.2017 22:10 15,3 C 14,4 C 13,3 C 80 % 0 lf 1017,9 hPa 0,0 l/m 0 min 0 min 0 W/m 14,6 km/h (3 Bft) 97,87 %
14.07.2017 22:12 15,3 C 14,4 C 13,3 C 80 % 0 lf 1017,9 hPa 0,0 l/m 0 min 0 min 0 W/m 16,7 km/h (3 Bft) 100,00 %
14.07.2017 22:14 15,3 C 14,4 C 13,3 C 80 % 0 lf 1017,9 hPa 0,0 l/m 0 min 0 min 0 W/m 10,5 km/h (2 Bft) 100,00 %
14.07.2017 22:16 15,2 C 14,4 C 13,3 C 81 % 0 lf 1018,0 hPa 0,0 l/m 0 min 0 min 0 W/m 16,7 km/h (3 Bft) 97,87 %
14.07.2017 22:18 15,2 C 14,4 C 13,3 C 81 % 0 lf 1018,0 hPa 0,0 l/m 0 min 0 min 0 W/m 12,6 km/h (3 Bft) 100,00 %
14.07.2017 22:20 15,2 C 14,4 C 13,3 C 81 % 0 lf 1018,0 hPa 0,0 l/m 0 min 0 min 0 W/m 16,7 km/h (3 Bft) 97,87 %
14.07.2017 22:22 15,2 C 14,4 C 13,3 C 81 % 0 lf 1018,0 hPa 0,0 l/m 0 min 0 min 0 W/m 12,6 km/h (3 Bft) 93,62 %
14.07.2017 22:24 15,2 C 14,4 C 13,3 C 81 % 0 lf 1018,0 hPa 0,0 l/m 0 min 0 min 0 W/m 12,6 km/h (3 Bft) 97,87 %
14.07.2017 22:26 15,1 C 14,4 C 13,3 C 81 % 0 lf 1018,0 hPa 0,0 l/m 0 min 0 min 0 W/m 16,7 km/h (3 Bft) 97,83 %
14.07.2017 22:28 15,1 C 14,4 C 13,3 C 81 % 0 lf 1018,0 hPa 0,0 l/m 0 min 0 min 0 W/m 14,6 km/h (3 Bft) 95,74 %
14.07.2017 22:30 15,1 C 14,4 C 13,3 C 81 % 0 lf 1017,9 hPa 0,0 l/m 0 min 0 min 0 W/m 12,6 km/h (3 Bft) 91,49 %
14.07.2017 22:32 15,1 C 14,4 C 13,3 C 81 % 0 lf 1018,0 hPa 0,0 l/m 0 min 0 min 0 W/m 12,6 km/h (3 Bft) 95,74 %
14.07.2017 22:34 15,1 C 14,4 C 13,3 C 81 % 0 lf 1018,0 hPa 0,0 l/m 0 min 0 min 0 W/m 10,5 km/h (2 Bft) 95,74 %
14.07.2017 22:36 15,1 C 14,4 C 13,3 C 82 % 0 lf 1018,0 hPa 0,0 l/m 0 min 0 min 0 W/m 8,4 km/h (2 Bft) 91,49 %
14.07.2017 22:38 15,1 C 14,4 C 13,3 C 82 % 0 lf 1018,0 hPa 0,0 l/m 0 min 0 min 0 W/m 12,6 km/h (3 Bft) 93,48 %
14.07.2017 22:40 15,1 C 14,4 C 13,3 C 82 % 0 lf 1018,1 hPa 0,0 l/m 0 min 0 min 0 W/m 12,6 km/h (3 Bft) 89,36 %
14.07.2017 22:42 15,1 C 14,4 C 13,3 C 82 % 0 lf 1018,1 hPa 0,0 l/m 0 min 0 min 0 W/m 12,6 km/h (3 Bft) 93,62 %
14.07.2017 22:44 15,1 C 14,4 C 13,3 C 82 % 0 lf 1018,1 hPa 0,0 l/m 0 min 0 min 0 W/m 12,6 km/h (3 Bft) 93,62 %
14.07.2017 22:46 15,1 C 14,4 C 13,3 C 82 % 0 lf 1018,1 hPa 0,0 l/m 0 min 0 min 0 W/m 12,6 km/h (3 Bft) 93,62 %
14.07.2017 22:48 15,0 C 14,4 C 13,3 C 82 % 0 lf 1018,2 hPa 0,0 l/m 0 min 0 min 0 W/m 12,6 km/h (3 Bft) 93,48 %
14.07.2017 22:50 15,0 C 14,4 C 12,8 C 82 % 0 lf 1018,2 hPa 0,0 l/m 0 min 0 min 0 W/m 10,5 km/h (2 Bft) 93,62 %
14.07.2017 22:52 15,0 C 14,4 C 12,8 C 82 % 0 lf 1018,3 hPa 0,0 l/m 0 min 0 min 0 W/m 12,6 km/h (3 Bft) 89,36 %
14.07.2017 22:54 15,0 C 13,9 C 12,8 C 82 % 0 lf 1018,3 hPa 0,0 l/m 0 min 0 min 0 W/m 10,5 km/h (2 Bft) 95,74 %
14.07.2017 22:56 15,0 C 13,9 C 12,2 C 82 % 0 lf 1018,3 hPa 0,0 l/m 0 min 0 min 0 W/m 10,5 km/h (2 Bft) 91,49 %
14.07.2017 22:58 14,9 C 13,9 C 12,2 C 82 % 0 lf 1018,4 hPa 0,0 l/m 0 min 0 min 0 W/m 10,5 km/h (2 Bft) 87,23 %
14.07.2017 23:00 14,9 C 13,9 C 12,2 C 82 % 0 lf 1018,4 hPa 0,0 l/m 0 min 0 min 0 W/m 12,6 km/h (3 Bft) 93,48 %
14.07.2017 23:02 14,9 C 13,9 C 12,2 C 82 % 0 lf 1018,5 hPa 0,0 l/m 0 min 0 min 0 W/m 10,5 km/h (2 Bft) 93,62 %
14.07.2017 23:04 14,8 C 13,9 C 12,2 C 82 % 0 lf 1018,4 hPa 0,0 l/m 0 min 0 min 0 W/m 8,4 km/h (2 Bft) 95,74 %
14.07.2017 23:06 14,8 C 13,3 C 12,2 C 82 % 0 lf 1018,5 hPa 0,0 l/m 0 min 0 min 0 W/m 10,5 km/h (2 Bft) 91,49 %
14.07.2017 23:08 14,8 C 13,3 C 12,2 C 82 % 0 lf 1018,5 hPa 0,0 l/m 0 min 0 min 0 W/m 10,5 km/h (2 Bft) 91,49 %
14.07.2017 23:10 14,8 C 13,3 C 12,2 C 82 % 0 lf 1018,5 hPa 0,0 l/m 0 min 0 min 0 W/m 10,5 km/h (2 Bft) 89,36 %
14.07.2017 23:12 14,7 C 13,3 C 12,2 C 82 % 0 lf 1018,5 hPa 0,0 l/m 0 min 0 min 0 W/m 12,6 km/h (3 Bft) 93,48 %
14.07.2017 23:14 14,7 C 13,3 C 12,2 C 82 % 0 lf 1018,6 hPa 0,0 l/m 0 min 0 min 0 W/m 16,7 km/h (3 Bft) 93,62 %
14.07.2017 23:16 14,6 C 13,3 C 12,2 C 82 % 0 lf 1018,6 hPa 0,0 l/m 0 min 0 min 0 W/m 16,7 km/h (3 Bft) 89,36 %
14.07.2017 23:18 14,6 C 13,3 C 12,2 C 82 % 0 lf 1018,7 hPa 0,0 l/m 0 min 0 min 0 W/m 10,5 km/h (2 Bft) 93,62 %
14.07.2017 23:20 14,5 C 13,3 C 12,2 C 83 % 0 lf 1018,6 hPa 0,0 l/m 0 min 0 min 0 W/m 20,9 km/h (4 Bft) 89,36 %
14.07.2017 23:22 14,5 C 13,3 C 11,7 C 83 % 0 lf 1018,6 hPa 0,0 l/m 0 min 0 min 0 W/m 10,5 km/h (2 Bft) 91,49 %
14.07.2017 23:24 14,4 C 13,3 C 12,2 C 83 % 0 lf 1018,6 hPa 0,0 l/m 0 min 0 min 0 W/m 12,6 km/h (3 Bft) 91,30 %
14.07.2017 23:26 14,4 C 13,3 C 11,7 C 83 % 0 lf 1018,6 hPa 0,0 l/m 0 min 0 min 0 W/m 18,8 km/h (3 Bft) 91,49 %
14.07.2017 23:28 14,3 C 13,3 C 11,7 C 83 % 0 lf 1018,6 hPa 0,0 l/m 0 min 0 min 0 W/m 16,7 km/h (3 Bft) 95,74 %
14.07.2017 23:30 14,3 C 13,3 C 11,7 C 83 % 0 lf 1018,7 hPa 0,0 l/m 0 min 0 min 0 W/m 12,6 km/h (3 Bft) 95,74 %
14.07.2017 23:32 14,2 C 13,3 C 11,7 C 83 % 0 lf 1018,7 hPa 0,0 l/m 0 min 0 min 0 W/m 14,6 km/h (3 Bft) 91,49 %
14.07.2017 23:34 14,2 C 13,3 C 11,7 C 83 % 0 lf 1018,7 hPa 0,0 l/m 0 min 0 min 0 W/m 12,6 km/h (3 Bft) 95,74 %
14.07.2017 23:36 14,2 C 13,3 C 11,7 C 83 % 0 lf 1018,7 hPa 0,0 l/m 0 min 0 min 0 W/m 14,6 km/h (3 Bft) 97,83 %
14.07.2017 23:38 14,2 C 12,8 C 11,7 C 83 % 0 lf 1018,7 hPa 0,0 l/m 0 min 0 min 0 W/m 12,6 km/h (3 Bft) 97,87 %
14.07.2017 23:40 14,2 C 12,8 C 11,7 C 83 % 0 lf 1018,7 hPa 0,0 l/m 0 min 0 min 0 W/m 12,6 km/h (3 Bft) 95,74 %
14.07.2017 23:42 14,2 C 12,8 C 11,7 C 83 % 0 lf 1018,7 hPa 0,0 l/m 0 min 0 min 0 W/m 10,5 km/h (2 Bft) 95,74 %
14.07.2017 23:44 14,2 C 12,8 C 11,7 C 83 % 0 lf 1018,8 hPa 0,0 l/m 0 min 0 min 0 W/m 10,5 km/h (2 Bft) 93,62 %
14.07.2017 23:46 14,2 C 12,8 C 11,7 C 83 % 0 lf 1018,7 hPa 0,0 l/m 0 min 0 min 0 W/m 12,6 km/h (3 Bft) 95,65 %
14.07.2017 23:48 14,1 C 12,8 C 11,7 C 83 % 0 lf 1018,8 hPa 0,0 l/m 0 min 0 min 5 W/m 12,6 km/h (3 Bft) 95,74 %
14.07.2017 23:50 14,0 C 12,8 C 11,7 C 83 % 0 lf 1018,8 hPa 0,0 l/m 0 min 0 min 5 W/m 16,7 km/h (3 Bft) 97,87 %
14.07.2017 23:52 14,0 C 12,8 C 11,7 C 83 % 0 lf 1018,8 hPa 0,0 l/m 0 min 0 min 0 W/m 10,5 km/h (2 Bft) 97,87 %
14.07.2017 23:54 13,9 C 12,8 C 11,7 C 83 % 0 lf 1018,8 hPa 0,0 l/m 0 min 0 min 0 W/m 12,6 km/h (3 Bft) 97,87 %
14.07.2017 23:56 13,9 C 12,8 C 11,1 C 83 % 0 lf 1018,8 hPa 0,0 l/m 0 min 0 min 0 W/m 12,6 km/h (3 Bft) 100,00 %
14.07.2017 23:58 13,9 C 12,8 C 11,1 C 83 % 0 lf 1018,8 hPa 0,0 l/m 0 min 0 min 0 W/m 14,6 km/h (3 Bft) 100,00 %
_ Min-Zeit 04:08 03:20 03:10 11:46 00:00 13:54 - - - - 00:00 03:08
Minimum _ 11,3 C 10,0 C 9,4 C 48 % 0 lf 1015,0 hPa - - - - 0,0 km/h (0 Bft) 82,98 %
_ Max-Zeit 11:48 11:14 11:46 18:24 14:12 23:44 17:12 12:12 13:48 11:46 15:56 01:22
Maximum _ 23,4 C 33,3 C 28,9 C 94 % 15 lf 1018,8 hPa 0,4 l/m 4 min 2 min 905 W/m 39,7 km/h
W-NW (6 Bft)
100,00 %
Durchschnitt _ 16,2 C 17,3 C 15,5 C 80 % 3 lf 1016,3 hPa #2,8 l/m #5:34 h #2:16 h 221 W/m 7,7 km/h (2 Bft) 95,97 %
© 2017 W. Hausmann